GFSCGP_925_thetae_048.txt.gz
Theta_e
313 313 314 311 311 311 311 314 314 311 312 315 313 314 315 327 330 329 326 323 322 322 319 319 319 319 319 319 319 320 320 320 319 319 320 322 321 321 317 317 320 318 317 317
312 315 312 312 311 313 313 313 313 312 313 313 313 317 317 322 329 330 327 324 321 321 320 320 318 318 318 318 318 318 319 319 320 319 319 320 322 321 321 321 322 321 321 322
315 315 313 313 313 313 313 313 313 314 313 315 320 319 322 321 323 328 326 323 321 320 320 320 318 316 317 317 317 318 318 319 320 319 320 319 319 320 319 316 316 318 321 320
316 315 314 314 314 313 314 313 314 315 316 318 318 320 316 317 322 325 326 326 322 318 321 319 318 316 315 315 317 317 317 318 318 318 318 318 318 319 318 316 315 314 315 316
317 315 316 315 315 313 315 314 314 316 315 315 316 316 315 323 322 322 321 324 325 320 320 320 318 317 315 314 315 317 317 317 317 317 317 317 317 317 317 316 315 314 314 314
315 314 313 316 315 314 315 316 316 316 315 318 317 315 315 317 321 320 320 320 322 322 320 321 319 317 314 314 315 315 316 316 317 317 316 316 315 315 316 316 316 314 313 313
315 317 316 315 316 315 315 315 318 318 319 321 316 315 317 315 314 318 318 318 319 321 321 321 319 317 315 314 314 315 315 315 316 316 316 316 316 316 315 315 315 315 315 314
314 314 316 316 317 317 315 315 317 322 321 318 318 321 320 317 315 315 317 317 318 319 321 322 320 318 316 314 314 314 314 314 315 315 315 315 315 314 315 314 314 314 314 315
314 315 313 314 316 317 317 316 315 316 317 319 317 317 316 318 317 316 316 315 317 317 321 321 321 319 317 316 314 314 314 314 314 315 315 314 314 313 313 313 314 314 315 316
314 316 314 315 314 314 315 314 317 315 321 323 319 321 318 318 318 316 314 314 317 317 319 321 321 320 319 317 316 315 315 315 314 314 314 314 314 314 314 314 314 314 314 315
312 314 314 314 315 315 315 315 316 316 316 319 319 317 316 316 315 316 315 314 313 317 318 320 320 321 321 320 316 315 314 314 314 314 314 314 315 315 315 315 315 315 315 314
319 313 313 314 313 313 314 315 315 317 318 318 315 318 316 315 315 315 315 316 314 315 317 318 320 321 321 321 319 317 315 313 314 313 313 314 315 316 316 316 315 317 317 318
319 321 320 318 315 316 317 315 316 314 314 316 317 317 316 315 314 314 314 314 312 310 313 316 317 320 320 321 321 319 317 316 315 314 314 315 315 316 317 318 317 318 318 318
317 321 318 323 322 319 320 317 316 319 315 315 316 316 315 316 316 314 314 313 313 310 310 312 315 317 320 321 321 321 320 318 317 316 316 316 317 317 317 318 318 318 319 320
316 316 319 320 320 317 316 315 315 315 317 317 317 315 314 314 315 315 314 314 313 312 310 312 312 315 316 319 320 321 322 321 320 319 318 318 319 319 319 319 319 320 321 322
315 313 317 316 318 317 315 314 314 316 317 316 316 315 312 314 313 313 314 314 314 312 312 311 313 313 313 316 318 320 321 322 322 322 321 320 320 320 321 321 321 322 322 322
314 315 315 315 314 313 313 312 314 314 312 315 316 315 314 314 314 314 314 314 314 313 312 311 311 314 314 315 317 318 319 320 322 322 322 322 322 322 322 322 323 323 322 322
313 312 310 312 312 314 308 311 312 311 313 314 313 313 315 315 315 314 313 314 314 313 313 311 309 310 316 318 318 319 320 319 320 321 322 323 323 322 322 322 321 320 320 319
311 308 308 309 313 311 309 308 309 314 309 313 311 314 318 316 310 311 311 311 313 313 312 312 313 312 314 317 321 322 323 323 322 321 321 322 320 319 318 318 317 316 315 311
310 308 311 312 311 308 306 311 315 315 312 315 317 319 318 318 314 315 311 310 309 309 309 309 310 312 315 319 321 321 320 322 320 320 318 319 320 319 315 313 310 308 307 305
313 313 316 313 315 310 309 311 315 315 310 314 314 314 316 317 315 313 314 313 309 309 308 313 316 316 318 318 320 316 316 317 315 316 316 316 315 314 311 307 305 303 302 300
311 310 312 313 315 312 309 317 314 312 313 313 312 315 316 315 315 315 312 310 309 312 314 315 314 313 315 316 316 312 308 309 312 312 311 308 308 306 304 303 299 298 297 294
310 308 309 310 310 308 313 315 315 313 312 314 314 313 314 314 315 314 311 311 310 310 309 310 308 307 310 312 311 305 303 307 307 306 303 303 302 301 299 299 295 294 293 291
308 307 309 309 308 309 308 309 310 313 314 315 313 313 313 315 314 314 310 309 308 306 306 306 306 304 303 307 308 305 305 306 305 299 298 298 298 296 296 296 294 291 290 289
305 307 309 309 308 309 309 311 311 311 312 314 313 313 312 314 314 313 311 308 306 304 304 304 302 301 301 301 301 302 302 304 299 296 295 294 294 294 292 291 291 290 290 291
307 308 308 307 307 309 309 309 304 308 308 308 313 313 313 308 309 311 306 304 304 302 300 298 297 296 295 294 295 297 298 300 296 291 290 290 289 288 287 286 285 286 288 289

GFSCGP_925_thetae_054.txt.gz
Theta_e
317 318 317 316 316 317 317 317 317 316 317 317 319 320 320 322 325 330 331 332 331 329 328 325 324 322 323 324 323 323 321 321 321 320 321 320 319 318 317 316 320 323 319 318
319 319 318 317 317 316 316 316 317 316 316 316 317 319 321 322 325 329 330 332 332 330 329 327 325 324 322 324 323 322 322 321 321 321 321 320 320 318 317 317 319 322 321 319
318 316 317 318 317 317 317 316 317 317 317 317 318 319 320 321 324 327 329 330 331 332 330 328 326 325 324 324 323 322 321 321 320 320 320 320 320 319 318 318 320 321 323 320
315 314 316 318 317 317 318 317 317 317 318 317 319 321 321 321 321 324 326 331 331 332 330 329 328 326 324 324 324 323 321 321 321 320 320 320 319 319 319 318 319 321 323 322
317 314 316 317 317 316 317 316 318 318 319 318 318 319 319 320 321 321 321 325 330 331 331 330 328 327 325 324 323 323 322 322 321 321 320 319 319 319 318 318 319 321 322 322
316 314 314 315 315 316 316 317 318 319 318 321 318 319 319 320 322 321 320 322 326 329 331 330 328 327 326 324 323 322 322 322 321 320 319 319 320 319 319 318 318 319 320 321
316 315 317 316 315 316 316 318 321 321 321 321 319 321 320 321 321 321 321 321 325 327 330 330 330 329 326 325 323 323 321 321 321 320 321 321 320 321 321 318 318 318 319 319
312 315 316 317 317 318 318 319 320 321 323 322 321 323 322 321 321 322 321 321 323 327 329 329 330 329 327 326 324 321 322 322 322 321 321 323 322 322 321 320 319 318 317 318
311 312 315 317 317 317 319 320 319 320 322 324 323 322 321 320 321 321 322 322 323 325 328 328 329 329 328 326 324 321 321 322 322 322 323 322 322 323 322 321 320 319 318 318
315 316 315 317 318 318 320 319 321 321 322 323 321 322 322 321 321 321 321 322 322 323 324 326 328 328 327 327 325 321 321 321 322 323 323 323 323 323 323 322 321 320 320 319
314 317 318 316 318 319 320 321 319 321 321 323 323 323 321 322 322 322 322 321 322 323 324 326 327 327 327 327 326 324 323 322 322 322 322 323 323 322 322 322 322 321 320 320
313 316 318 317 316 317 319 319 320 321 322 322 325 323 321 320 319 320 321 321 321 322 323 324 328 328 327 327 327 326 324 323 322 322 322 322 322 322 322 321 321 321 321 320
319 316 315 316 316 317 319 319 319 320 320 323 326 322 319 318 318 319 320 321 321 321 322 321 325 328 328 327 326 326 326 325 324 323 322 322 322 322 322 322 321 321 320 320
317 318 317 314 315 318 321 318 317 320 323 321 321 320 319 319 318 319 320 321 321 321 321 321 321 325 327 327 327 327 326 325 324 323 323 322 322 322 322 322 321 321 320 320
316 317 316 315 315 314 316 317 316 317 318 319 319 317 317 316 315 318 319 319 320 320 320 321 321 322 324 326 327 327 326 325 325 324 323 323 322 322 321 321 321 320 320 320
313 313 314 313 312 315 316 314 314 315 314 315 316 318 316 315 315 315 315 317 319 319 320 320 321 321 320 322 326 326 326 325 324 324 324 323 323 322 322 321 321 320 320 320
311 316 314 311 314 313 312 314 314 315 315 314 314 313 312 313 313 315 315 317 319 320 319 319 319 321 320 320 321 324 326 326 325 324 323 323 323 322 322 321 321 321 321 321
309 316 317 314 316 313 310 312 312 313 312 312 311 311 314 316 317 318 319 319 320 320 320 321 321 320 319 319 319 320 322 325 326 325 324 323 323 322 322 322 321 321 321 322
308 313 315 316 315 312 311 309 310 311 309 312 314 314 314 315 316 317 319 317 318 319 319 319 318 319 319 317 318 318 320 323 325 326 325 324 324 323 323 323 323 323 323 322
309 310 314 315 312 312 311 313 314 314 312 315 314 315 316 316 318 317 317 317 319 318 318 316 316 317 317 317 316 317 319 320 323 324 325 325 325 324 324 324 324 319 319 318
312 312 314 313 316 313 311 310 312 317 318 314 314 314 315 317 318 317 316 317 317 316 315 314 316 317 318 317 317 318 319 320 321 322 323 324 324 325 321 314 314 313 309 306
311 312 313 312 314 315 311 312 314 319 315 314 314 314 315 317 316 316 316 316 316 315 313 313 314 316 316 317 319 320 321 320 319 318 315 314 313 312 309 311 306 304 301 295
314 311 312 311 313 312 313 315 313 314 315 315 315 315 317 317 317 315 315 314 313 312 310 309 309 309 307 310 316 318 312 310 308 306 303 302 302 301 299 298 295 293 293 290
309 310 313 312 311 311 311 312 312 311 312 311 310 312 314 315 315 313 313 309 307 303 304 301 301 301 299 299 300 305 304 302 300 298 296 296 295 294 294 294 293 292 291 289
309 310 311 311 310 310 310 312 310 309 308 307 307 306 307 306 308 305 306 302 299 295 294 295 294 294 294 295 295 296 297 296 294 293 292 290 289 288 287 287 289 290 290 290
308 308 311 310 311 310 310 309 306 307 306 305 303 303 302 300 300 299 298 296 293 291 291 290 290 289 289 289 289 291 294 293 292 291 290 289 288 286 285 285 284 284 287 287

GFSCGP_925_thetae_057.txt.gz
Theta_e
312 313 316 318 319 320 320 322 322 322 320 319 320 320 322 322 322 324 328 329 331 331 330 328 327 326 327 327 326 326 323 322 322 321 321 321 321 322 321 321 319 319 318 318
313 315 314 315 317 318 318 320 321 321 319 318 318 318 320 321 322 323 327 329 331 332 331 329 328 326 327 326 326 324 323 322 322 322 321 321 321 320 320 321 322 319 320 319
316 315 316 316 318 318 319 320 320 320 320 319 318 318 320 321 322 322 325 326 328 331 332 331 329 328 326 327 326 324 322 322 322 321 323 321 320 320 319 318 320 322 323 320
318 315 317 318 319 320 321 320 319 319 320 321 320 320 321 321 322 323 324 324 326 329 331 331 330 329 327 326 326 325 323 322 323 321 321 321 320 319 319 318 317 318 322 322
317 316 315 316 319 319 320 319 320 319 320 321 320 320 322 322 322 323 323 324 326 328 331 332 331 329 328 327 326 325 322 323 322 322 321 321 321 320 318 318 317 319 321 320
316 316 317 316 316 317 318 318 319 320 321 324 322 321 321 322 322 322 322 322 323 328 330 331 330 329 329 327 327 325 324 322 322 322 322 321 320 320 319 318 318 320 321 322
312 316 317 315 316 317 317 319 322 323 325 325 322 321 321 322 322 322 322 322 323 325 328 331 331 331 329 328 327 325 324 324 322 321 321 322 322 320 320 319 319 318 321 322
313 317 316 317 316 316 318 319 322 324 328 325 322 323 322 323 322 322 322 322 322 325 328 330 332 332 330 329 327 326 324 324 323 322 322 322 322 321 321 320 320 319 319 320
313 311 314 316 317 316 319 320 318 322 323 328 324 323 323 323 321 321 321 321 322 324 328 329 330 331 330 330 329 327 325 324 324 323 322 322 322 321 321 321 321 321 320 320
313 313 312 315 317 317 317 319 320 321 325 326 325 326 326 322 322 323 322 322 322 323 325 327 329 330 330 330 329 328 326 324 325 324 323 323 322 322 322 322 323 323 321 320
313 316 315 316 318 318 317 320 322 321 322 325 327 325 323 324 323 323 324 323 324 324 324 325 326 328 330 330 330 329 327 325 324 325 325 324 324 325 324 324 324 324 323 322
315 317 317 320 316 318 319 320 322 324 326 324 328 325 323 322 321 321 321 322 322 323 323 324 326 328 329 330 330 329 328 326 324 324 326 326 327 326 326 325 326 325 325 324
318 316 318 320 319 318 318 319 320 322 323 326 330 325 322 321 320 320 320 321 322 322 322 322 323 328 330 330 330 330 329 327 326 325 325 327 327 327 327 327 327 327 326 325
316 320 316 317 319 318 320 320 320 321 325 324 325 324 322 320 320 319 319 321 321 321 321 321 322 323 328 329 329 330 329 329 328 327 326 326 327 327 327 327 327 326 326 326
316 321 320 316 317 317 319 320 319 320 321 322 322 322 320 319 319 317 317 316 317 318 321 321 322 322 323 326 328 329 329 329 329 328 327 327 327 327 326 326 326 326 325 325
315 318 316 319 315 315 317 317 318 317 317 317 318 318 317 318 317 316 316 315 315 317 320 321 322 322 322 322 323 327 328 329 329 329 329 328 327 327 326 326 326 326 325 325
312 313 317 318 315 314 315 316 317 317 317 317 319 318 315 315 313 314 316 317 318 319 320 321 322 322 322 322 322 322 325 328 329 329 329 328 328 327 327 327 326 326 325 325
311 313 314 318 316 320 314 313 313 315 315 315 314 313 314 315 316 316 316 320 320 320 321 321 321 320 319 320 321 321 321 323 327 328 328 328 328 328 327 327 326 326 325 325
310 312 315 315 316 314 312 312 312 312 311 311 312 314 315 316 316 317 318 317 318 319 319 319 318 318 319 319 320 320 320 320 323 327 328 328 327 327 327 327 327 326 326 326
310 311 315 315 315 314 312 313 314 312 312 315 315 316 315 316 318 318 318 317 318 317 317 316 316 317 318 318 319 321 320 319 320 323 327 328 327 326 326 326 326 326 325 324
313 312 313 314 314 312 311 312 311 316 317 315 314 315 315 315 315 317 316 317 317 316 314 314 313 313 312 310 311 316 321 321 320 320 322 326 327 327 326 326 326 318 310 309
311 312 313 313 314 314 312 312 313 318 315 315 314 315 317 317 316 315 317 316 316 314 312 310 309 307 304 301 302 306 316 320 322 323 324 319 318 316 314 312 309 310 306 299
312 311 312 311 313 313 313 316 315 314 314 314 314 314 314 314 315 316 316 316 313 311 307 305 304 301 297 294 296 299 302 308 310 311 307 303 304 303 303 303 299 296 295 292
312 312 312 314 312 313 312 314 314 312 313 312 311 311 311 312 312 312 310 310 307 304 302 300 298 297 292 290 291 292 296 298 298 297 296 294 294 294 294 294 294 293 291 290
310 310 311 312 312 311 311 314 312 311 310 310 309 309 309 308 308 307 307 303 300 297 295 295 292 293 289 288 288 289 292 293 292 291 290 289 288 287 286 286 287 288 288 288
309 310 312 312 313 314 312 311 309 308 308 307 306 306 304 304 302 302 300 295 292 292 289 288 287 287 286 286 286 287 288 290 290 289 288 287 286 285 285 284 283 283 284 285

GFSCGP_925_thetae_063.txt.gz
Theta_e
313 309 308 308 313 315 317 318 318 316 318 322 320 318 317 317 317 321 319 319 323 328 326 325 328 329 328 327 327 325 323 324 324 325 324 325 325 323 323 321 320 323 320 324
318 314 312 310 310 316 317 317 317 318 319 321 320 318 317 316 315 316 321 319 319 327 327 325 328 328 327 326 326 325 323 322 321 321 323 323 323 323 322 321 320 323 322 321
321 317 315 315 311 310 316 317 318 319 319 318 319 316 317 318 317 316 317 321 321 328 328 326 326 327 326 325 326 325 323 322 321 322 322 322 322 321 321 321 320 321 320 319
321 318 317 318 320 315 312 314 316 317 318 319 318 318 318 319 318 317 316 317 323 328 328 327 325 325 326 325 326 325 324 321 321 322 322 321 321 321 320 320 320 320 320 320
320 320 320 319 318 318 319 316 317 318 320 318 319 318 317 317 318 317 315 318 318 327 328 328 326 325 326 326 326 324 323 322 322 321 321 321 320 320 320 320 320 319 320 320
316 317 319 320 319 319 318 319 319 318 320 323 321 319 317 318 319 320 319 319 319 320 328 328 327 326 326 326 325 324 324 323 323 322 321 321 320 319 318 320 320 320 318 318
312 316 315 317 319 318 318 320 322 324 324 323 320 320 319 319 320 320 320 318 319 319 328 328 328 326 325 325 324 323 323 323 323 322 322 321 320 319 317 319 320 320 321 320
312 320 314 314 314 320 319 318 323 326 326 324 320 321 320 319 320 319 319 319 319 321 329 328 328 327 326 326 324 323 322 323 323 322 322 321 321 319 318 317 319 319 319 320
315 317 315 313 315 317 320 320 317 321 323 326 326 324 319 319 319 318 319 319 322 322 326 329 328 328 327 326 325 324 323 323 323 323 322 322 322 320 319 317 317 318 317 318
312 315 314 314 315 317 318 317 322 323 329 330 325 325 327 323 320 321 319 318 319 319 321 328 328 327 328 327 326 324 323 322 322 323 322 322 322 322 321 320 318 317 316 316
316 314 314 314 316 318 319 321 322 323 323 326 328 328 324 321 321 320 321 320 318 318 319 321 328 328 329 328 327 325 324 323 322 321 322 323 322 322 321 321 319 318 317 316
314 318 316 312 312 314 317 319 322 328 328 326 324 329 324 322 318 318 318 317 318 319 320 320 320 322 328 328 328 326 325 324 323 322 321 321 322 322 322 321 321 320 319 318
310 317 319 318 317 317 318 316 319 320 322 328 330 327 326 324 322 317 314 314 316 319 319 319 320 320 321 324 328 328 326 325 324 323 322 322 322 321 322 322 322 321 321 320
310 315 320 321 321 321 322 321 317 318 324 325 328 329 327 325 324 321 314 314 318 318 319 319 319 319 319 319 320 324 328 327 325 325 323 323 322 321 321 321 321 322 321 321
314 317 318 317 317 320 320 320 320 321 321 328 327 328 325 325 324 321 314 317 319 320 319 319 318 317 318 318 319 320 320 322 328 326 325 324 323 323 322 321 321 322 321 322
313 315 316 317 317 317 320 319 320 322 323 324 325 326 325 322 322 321 317 319 319 319 318 317 316 316 317 316 315 314 315 316 320 328 327 326 326 324 324 323 323 323 322 322
314 314 315 318 314 318 318 317 322 321 321 322 325 323 323 323 320 318 317 317 318 317 315 315 314 314 313 309 308 307 309 312 315 319 322 327 327 326 326 325 325 324 325 325
311 311 313 315 314 321 318 316 318 319 319 319 317 318 316 317 317 316 315 315 315 313 312 311 311 310 307 303 303 303 306 307 311 309 310 313 318 322 326 326 327 327 326 326
308 309 310 315 317 316 315 316 313 317 316 315 315 315 315 317 315 316 316 315 312 310 308 308 307 304 301 298 298 300 302 302 303 302 303 307 313 311 314 322 326 327 327 327
308 308 309 311 315 318 315 314 314 313 319 316 316 316 315 315 317 316 314 311 309 306 304 303 302 300 297 295 295 297 297 298 297 298 300 303 307 305 306 309 314 327 326 326
309 309 310 310 312 315 314 313 313 315 320 316 316 315 313 314 314 312 309 305 303 300 299 298 298 296 293 292 293 294 294 294 294 296 297 298 298 298 300 302 308 320 326 325
311 311 311 309 310 312 311 313 315 316 314 313 312 312 312 311 311 307 304 300 297 295 294 293 293 292 290 289 289 290 291 291 293 293 292 291 290 291 294 297 300 305 304 305
313 313 311 310 309 312 315 316 314 312 312 311 310 309 309 308 306 301 298 296 294 291 291 290 290 289 288 287 287 288 288 289 290 290 288 287 287 287 289 290 291 295 296 294
312 311 313 312 312 313 313 311 310 309 308 307 306 306 306 305 302 298 295 293 291 289 289 287 287 286 286 286 286 287 287 288 288 287 286 285 285 285 285 285 286 287 290 290
311 308 311 312 313 311 308 307 306 305 305 304 302 301 302 300 296 294 292 291 288 287 286 285 285 285 285 285 285 285 286 286 286 285 284 284 284 284 283 283 284 284 284 286
310 305 311 312 308 310 308 306 303 303 302 300 299 295 295 295 293 290 289 286 285 284 283 283 283 284 284 284 284 284 285 285 285 284 284 283 283 283 282 282 282 282 283 283

GFSCGP_925_thetae_066.txt.gz
Theta_e
313 310 312 305 308 313 315 316 316 316 315 316 316 317 319 318 313 313 316 318 325 327 324 326 328 328 327 326 326 326 326 328 328 327 327 326 326 325 325 325 324 325 324 324
317 315 312 309 308 310 314 316 317 316 316 317 317 318 316 316 315 315 318 316 324 325 323 326 327 326 325 325 325 324 325 325 326 325 325 325 326 325 324 324 323 323 323 322
319 318 317 313 312 312 311 312 316 317 316 317 318 318 316 315 315 314 317 318 320 326 325 326 327 326 325 325 324 324 324 325 324 324 324 323 323 322 323 322 321 322 322 321
319 318 318 318 316 316 320 311 311 315 317 320 318 321 318 316 316 316 315 315 317 326 325 326 327 325 324 324 325 324 323 322 322 321 322 322 321 321 321 321 321 321 321 322
317 319 320 319 317 317 318 320 319 319 318 317 319 318 318 315 317 316 315 312 316 325 325 326 327 326 325 324 324 323 323 322 321 322 321 321 322 321 321 321 321 321 322 320
315 317 318 317 318 318 320 320 320 317 317 321 320 320 319 316 318 318 317 315 317 325 326 324 325 326 324 324 324 323 322 322 321 321 322 321 321 321 320 320 319 320 320 319
308 314 316 318 320 318 319 321 323 325 322 324 321 321 321 318 317 318 318 317 316 326 326 325 324 325 324 323 323 322 322 322 321 321 321 321 320 320 319 320 320 320 319 318
308 312 311 318 318 320 319 322 324 330 328 324 320 321 319 318 318 317 317 315 317 326 326 326 324 324 325 324 322 322 322 322 322 322 321 321 320 319 319 319 319 319 319 319
311 315 312 315 316 316 319 324 320 322 322 326 325 322 321 319 317 317 316 318 322 326 326 327 325 324 324 323 322 322 322 322 322 322 321 320 320 319 318 318 319 319 320 319
310 314 312 313 315 316 318 319 324 326 329 329 325 323 326 321 320 319 318 317 321 327 327 327 326 325 324 324 323 322 322 322 322 322 322 321 320 320 319 318 318 318 318 319
315 313 312 313 315 318 319 322 321 322 325 329 328 330 326 323 318 319 320 320 320 320 322 325 326 326 326 325 323 323 322 321 322 322 322 322 321 321 320 319 318 317 318 318
312 316 319 315 312 313 318 321 322 326 326 324 326 328 326 324 320 316 320 320 319 319 319 320 322 324 326 326 324 323 322 321 321 322 322 322 322 322 322 321 319 318 316 317
309 314 319 316 315 313 317 318 321 322 322 327 329 328 326 325 324 322 317 319 319 319 318 318 318 319 319 320 326 325 324 323 322 321 321 321 322 322 322 321 321 320 319 317
309 313 318 321 322 319 322 321 319 322 325 324 324 326 327 325 324 321 318 318 319 318 317 317 317 318 317 316 316 316 318 319 322 323 321 320 321 321 321 321 321 321 320 320
311 312 317 316 316 315 318 321 320 322 321 324 323 324 327 326 321 321 320 319 318 316 316 317 316 313 311 309 309 309 310 312 315 323 323 322 321 321 321 321 321 321 321 321
311 312 314 315 314 312 315 320 320 321 323 320 321 324 324 323 322 320 319 317 316 315 315 314 312 309 306 305 304 305 306 308 312 311 311 319 323 322 322 321 320 320 321 321
312 313 311 314 314 313 318 317 319 320 322 323 326 323 323 321 320 318 317 315 314 312 312 311 307 303 300 299 300 301 302 304 304 304 304 306 308 314 321 322 322 321 320 321
309 309 310 312 312 314 316 311 313 321 321 320 320 321 322 320 319 318 313 311 310 309 308 305 302 299 297 296 296 297 298 298 298 299 300 302 304 308 307 309 314 322 322 322
308 308 308 311 313 312 310 315 315 319 318 317 317 320 322 317 313 311 308 307 306 304 303 300 297 295 294 293 294 295 295 294 294 296 297 298 299 300 301 303 304 307 310 319
307 306 306 308 313 313 314 313 313 314 322 316 317 318 317 315 314 309 304 301 299 298 298 296 294 292 291 290 291 293 292 292 293 294 294 294 293 294 296 297 298 302 303 306
306 306 309 308 309 310 312 312 313 315 320 314 313 314 314 313 309 303 299 297 295 294 294 293 291 289 288 288 290 290 290 291 292 291 290 289 289 289 291 291 293 296 299 301
309 309 307 308 309 310 311 314 314 315 313 312 311 310 307 304 301 299 296 294 293 291 290 290 289 287 287 287 288 288 289 289 289 288 287 286 286 286 287 288 289 292 294 295
313 311 310 308 307 310 308 310 310 312 311 310 309 307 304 302 299 296 294 292 290 288 287 287 286 286 285 286 286 287 287 287 286 285 285 285 284 284 285 285 286 287 290 290
312 311 312 312 311 309 307 306 305 304 303 302 303 303 301 299 296 294 292 289 287 286 285 285 285 285 284 284 284 285 286 285 284 284 283 283 283 283 283 284 285 285 286 287
310 308 310 313 309 308 306 305 304 301 300 298 296 297 296 294 292 290 288 286 285 284 283 283 284 284 283 283 283 284 284 285 284 283 282 282 282 282 282 282 283 284 284 285
305 304 306 309 307 304 306 303 302 299 296 295 294 292 291 290 289 287 286 284 283 282 281 281 282 282 281 281 282 282 283 282 282 281 281 280 280 280 280 281 280 280 280 282

GFSCGP_925_thetae_069.txt.gz
Theta_e
313 311 311 306 307 311 314 314 314 314 316 314 314 313 314 315 314 312 311 308 322 324 324 325 327 327 328 327 327 327 327 326 327 328 327 326 326 325 325 327 327 327 327 327
316 314 312 310 308 307 308 311 315 315 316 315 313 314 314 315 315 313 313 311 314 323 321 327 326 325 325 325 326 327 328 325 327 327 326 326 325 325 325 326 326 324 325 327
315 316 316 314 312 312 311 309 313 316 315 314 314 315 316 317 314 313 312 313 317 323 323 328 327 325 325 324 324 326 327 327 326 327 326 326 325 324 324 324 324 324 324 326
317 316 318 318 318 315 314 311 315 311 311 315 315 319 317 317 316 315 314 313 315 323 324 327 326 325 324 324 324 325 324 325 326 326 325 325 325 324 324 323 323 323 324 325
315 318 320 318 318 317 316 320 320 319 318 317 317 317 317 316 316 315 314 312 312 322 324 326 326 325 324 324 322 323 324 324 324 325 325 324 323 322 322 323 322 322 322 322
314 315 316 316 317 316 316 320 319 319 317 319 316 318 319 319 318 317 316 315 311 319 323 324 326 325 324 323 322 322 322 323 323 323 322 322 321 320 321 321 321 321 322 322
307 310 315 317 318 317 318 322 323 322 320 320 318 319 319 319 317 317 317 316 312 317 323 324 325 324 323 323 322 321 321 321 322 322 321 321 321 320 320 321 321 321 321 321
307 307 313 317 316 318 317 323 325 325 326 323 320 322 320 320 318 317 316 316 315 314 323 324 325 324 323 323 322 321 321 321 321 321 321 321 321 321 319 320 320 321 321 320
308 312 310 316 316 317 321 322 321 324 324 323 323 322 321 319 318 319 315 314 314 318 324 323 325 324 323 323 322 321 321 321 320 320 320 321 321 321 320 319 320 320 320 320
309 312 310 312 315 316 319 320 324 325 329 327 325 328 329 323 319 320 320 318 321 324 324 323 324 324 324 323 322 321 321 321 320 321 320 320 320 320 320 319 319 319 320 319
312 312 310 313 316 319 321 324 320 323 326 328 327 332 326 326 322 319 320 320 319 321 324 324 323 322 323 322 321 321 321 321 320 320 320 320 320 320 319 319 318 319 319 319
312 316 318 317 312 315 317 320 322 325 326 326 328 329 325 324 320 318 319 319 319 321 322 323 323 323 323 323 322 322 321 321 321 321 321 320 321 320 320 319 318 318 319 318
308 313 317 314 314 316 319 320 320 321 323 325 328 326 325 324 321 318 319 318 318 318 318 317 316 316 317 321 323 322 322 322 321 321 321 321 321 321 321 320 320 319 319 318
309 312 315 315 319 318 320 318 321 323 325 324 324 328 326 323 323 319 320 316 317 317 315 313 311 310 309 310 311 311 311 313 314 319 321 321 321 321 321 321 321 320 320 319
307 310 315 314 313 314 316 317 320 323 322 325 320 321 323 322 322 320 320 316 316 314 312 308 307 305 304 304 305 305 306 307 309 315 315 317 320 321 321 321 321 321 320 320
311 310 312 312 314 311 310 312 318 321 321 322 321 321 323 320 319 320 320 316 315 313 309 305 302 301 300 299 300 301 301 301 302 303 304 306 311 314 318 320 321 321 320 320
311 311 310 311 310 310 312 315 314 320 319 319 325 321 323 323 320 320 316 314 312 309 306 302 300 298 297 296 297 297 296 297 298 298 299 300 302 304 305 307 311 317 320 320
309 308 308 310 310 309 309 307 314 316 319 320 320 321 321 320 318 314 313 311 309 305 301 298 297 295 294 293 294 294 294 294 295 295 296 295 295 296 298 300 302 303 305 308
307 306 307 307 309 308 308 314 314 315 317 317 318 319 319 315 309 306 304 303 303 300 297 294 293 292 291 291 292 292 292 293 293 292 292 291 291 292 294 295 295 297 299 301
307 305 306 307 310 308 308 311 313 313 318 315 316 319 316 314 316 307 301 298 297 296 293 291 290 289 289 289 290 290 291 291 290 289 288 288 287 289 290 290 291 292 294 296
306 305 309 308 308 307 308 312 312 316 318 313 314 319 315 314 309 300 297 295 293 293 292 290 288 287 288 289 289 289 290 289 287 287 286 285 285 287 287 287 288 290 291 292
307 307 306 307 308 308 307 312 313 314 312 310 308 305 303 301 299 297 295 293 291 289 288 288 287 286 286 287 288 288 287 286 286 285 284 284 284 284 285 285 286 287 288 288
304 309 309 307 307 307 305 306 307 310 311 309 307 304 302 300 297 294 292 289 287 286 286 286 286 285 285 285 286 286 285 284 284 284 283 283 282 283 284 284 285 285 286 286
311 310 310 311 309 307 304 303 301 300 301 303 303 301 299 297 294 291 288 287 285 285 285 285 285 284 284 284 284 284 285 283 283 283 282 282 282 281 281 282 282 283 284 284
309 308 306 311 309 307 306 303 300 298 296 295 294 294 294 292 290 288 286 285 284 283 283 283 283 283 282 282 282 283 282 282 281 281 280 280 280 280 280 280 281 281 281 282
303 302 304 308 305 305 303 300 299 296 294 293 291 290 289 288 287 285 284 282 282 281 280 280 280 280 281 281 280 281 281 281 281 280 280 279 279 279 279 279 279 279 279 280

GFSCGP_925_thetae_075.txt.gz
Theta_e
311 311 310 309 309 309 309 310 310 310 311 312 313 315 316 316 315 315 316 315 316 315 317 322 326 328 328 329 328 328 327 327 326 327 325 327 327 327 327 327 326 325 325 327
315 314 312 310 309 308 309 310 311 310 310 310 311 312 315 315 315 315 317 317 316 316 316 322 327 328 328 328 328 328 328 327 327 326 326 325 325 325 326 326 326 327 326 325
313 313 314 313 315 315 315 315 315 314 313 313 312 313 313 313 315 315 315 315 316 315 316 320 327 328 328 327 328 328 327 327 326 325 325 325 324 324 324 325 326 325 325 324
315 314 315 316 317 317 318 314 314 315 315 316 313 317 315 315 316 316 316 317 317 317 315 317 327 328 328 328 328 326 325 326 325 324 325 325 324 324 324 324 326 325 325 325
312 317 318 318 315 316 316 316 317 317 319 319 318 318 316 315 316 316 317 317 318 317 316 320 326 327 328 328 327 325 325 325 324 324 325 324 324 325 323 324 324 325 325 326
315 313 316 316 315 315 316 317 318 318 319 322 318 318 318 316 316 317 318 319 319 318 317 320 325 326 327 327 325 322 324 324 324 323 325 325 324 323 323 323 323 324 324 324
306 308 313 314 315 315 315 316 320 321 321 320 317 319 319 317 316 321 321 321 321 319 319 324 327 327 327 326 323 322 323 322 323 323 324 325 324 324 323 323 323 323 323 323
307 310 309 313 312 312 316 316 320 322 322 322 318 319 319 322 320 320 320 320 321 322 316 324 327 327 326 325 322 323 322 321 320 321 322 324 324 323 323 322 322 322 322 322
307 309 307 314 314 312 318 319 318 325 320 323 320 320 323 322 321 321 322 323 325 325 324 319 326 327 326 324 322 322 321 320 319 320 321 321 321 321 321 321 320 321 321 322
308 310 309 316 316 316 318 318 325 323 322 324 321 323 328 324 323 321 322 321 323 326 325 323 326 325 325 322 321 321 322 322 320 319 322 322 321 321 320 320 319 320 321 321
307 312 311 317 317 318 318 318 320 320 321 324 327 330 323 323 321 321 320 317 316 319 325 325 324 324 323 322 321 321 321 321 321 320 320 321 320 320 320 320 320 320 319 320
314 316 314 313 312 314 316 318 320 321 323 325 325 325 323 321 318 318 316 314 313 313 314 321 324 323 322 321 321 321 320 320 320 320 319 319 319 319 318 319 320 320 319 319
313 317 319 316 316 316 316 318 319 319 318 322 326 326 323 321 317 314 312 310 309 310 309 309 311 312 315 317 317 315 317 319 319 319 319 319 319 318 319 318 318 318 319 319
310 311 315 314 311 313 315 313 314 317 318 318 323 324 324 319 321 314 311 308 306 305 305 305 305 305 305 305 305 306 308 310 318 320 320 318 319 319 319 319 319 318 318 319
310 310 312 312 312 312 310 311 309 310 316 319 318 318 319 320 320 319 312 307 305 303 302 301 300 301 301 301 302 302 302 303 305 306 306 307 311 316 319 319 319 320 320 319
311 312 312 310 312 308 308 306 308 310 310 314 318 319 317 318 321 317 312 308 305 302 300 298 297 297 297 297 298 298 298 297 299 297 297 298 300 303 305 308 312 315 316 316
309 311 311 309 309 307 306 307 306 310 313 317 319 318 320 322 321 316 312 307 304 301 299 297 295 295 294 294 295 295 294 294 293 293 293 293 295 296 297 298 301 303 304 306
310 309 309 310 308 305 304 305 308 314 316 314 315 318 317 313 308 311 308 305 302 299 296 294 293 293 292 293 293 292 291 291 291 290 290 291 293 293 294 295 296 297 299 298
308 308 309 308 308 306 305 310 310 314 313 314 315 316 313 309 307 304 301 299 297 294 293 292 291 291 291 291 291 290 289 289 288 288 288 289 290 291 291 292 293 294 295 293
305 306 308 308 308 306 305 309 308 311 309 310 309 312 314 312 317 306 298 294 292 290 290 290 289 289 289 289 289 288 288 287 286 285 286 287 287 288 289 289 290 291 290 289
309 308 309 309 308 307 306 307 308 305 309 307 306 310 313 313 304 296 293 291 289 289 289 288 287 287 287 286 287 287 286 285 284 284 284 285 285 286 287 287 288 288 287 287
307 308 308 307 308 307 305 308 308 308 306 303 302 300 299 296 293 291 290 289 288 287 287 287 286 286 285 286 285 285 284 284 284 283 283 283 283 284 284 285 285 286 286 286
307 307 309 307 308 305 303 303 300 305 305 302 300 298 295 293 291 289 288 287 286 286 286 285 285 284 284 284 284 284 283 283 283 283 282 282 282 282 283 283 283 283 283 283
306 306 309 308 307 305 302 299 297 297 298 297 296 294 291 289 288 287 286 286 285 284 284 284 284 283 283 282 283 282 282 282 282 282 282 281 281 281 281 281 281 282 282 282
305 305 304 307 304 302 299 298 296 294 293 292 292 291 290 288 287 286 285 284 282 282 282 282 282 281 281 281 281 281 282 282 282 281 281 281 281 280 279 279 280 280 280 280
300 302 303 304 300 298 295 293 292 292 291 290 289 288 287 286 284 283 282 281 280 280 280 279 279 279 279 279 278 279 280 281 281 281 280 279 279 279 279 279 277 277 278 278

GFSCGP_925_thetae_078.txt.gz
Theta_e
309 310 310 309 310 311 311 311 311 311 311 312 313 314 315 316 318 319 319 319 319 319 319 319 322 329 332 334 336 334 332 332 330 329 327 327 328 328 327 327 327 327 327 328
314 312 310 309 310 310 311 311 312 313 314 314 315 317 317 316 315 317 319 319 319 319 319 319 323 329 332 334 335 333 332 331 330 329 327 327 327 327 327 327 326 327 326 326
312 311 314 313 313 313 314 316 316 317 317 317 318 319 318 317 317 316 317 318 319 320 319 320 323 329 331 333 334 333 332 331 330 330 329 329 327 326 326 326 326 325 328 326
312 311 312 314 314 316 316 315 315 316 318 318 317 318 318 318 318 316 316 319 319 320 319 320 322 328 330 332 334 333 332 331 330 329 328 328 327 326 326 326 325 325 325 326
311 314 316 314 313 315 314 315 315 317 320 320 320 321 320 318 319 318 318 319 320 321 320 322 322 325 329 331 333 333 332 330 330 328 327 327 327 326 326 326 325 325 324 323
312 312 315 316 316 314 314 314 314 316 320 322 320 320 320 319 320 320 321 320 322 322 322 322 322 325 328 331 333 332 331 329 329 328 327 327 326 325 327 325 326 324 324 323
310 312 313 314 314 314 315 312 312 319 322 321 318 320 320 320 322 322 322 324 325 325 325 323 326 328 329 332 330 329 330 328 328 327 326 326 326 326 326 326 325 324 324 323
310 312 309 313 313 311 313 313 316 318 319 319 319 321 321 323 323 323 323 325 327 328 327 323 327 328 329 331 326 327 329 327 327 327 326 327 326 325 325 325 326 326 324 324
311 312 309 313 313 313 318 319 317 321 320 323 319 319 323 323 323 324 325 324 325 328 330 324 326 330 329 330 324 326 326 325 325 325 325 326 326 325 325 325 324 323 323 323
311 311 311 315 315 315 318 318 321 322 324 322 320 321 324 326 325 325 324 323 320 321 328 326 327 329 329 327 324 326 325 324 324 323 324 324 324 324 323 323 322 323 323 322
310 311 314 317 317 316 318 320 320 321 323 324 324 332 324 322 321 322 320 317 316 316 317 327 327 327 326 324 324 324 325 324 323 322 322 323 322 323 322 322 321 321 322 321
312 314 314 313 313 314 315 316 319 322 323 325 327 326 322 318 316 315 314 312 311 311 312 312 322 324 323 324 323 324 325 325 324 321 322 322 323 323 323 322 321 321 321 321
312 316 316 314 316 316 316 317 318 316 320 322 326 328 319 319 315 313 311 308 307 307 306 307 308 309 308 314 319 320 322 322 321 321 321 321 320 320 321 322 322 323 322 320
307 314 315 312 316 315 317 316 316 317 319 318 316 319 320 321 318 316 310 307 305 304 303 302 302 303 304 305 305 308 310 316 320 319 317 317 319 320 320 320 321 321 321 322
307 317 313 313 312 313 311 311 311 314 314 315 311 312 314 318 319 316 311 307 304 301 300 299 299 299 299 300 301 301 301 303 304 305 305 305 309 312 315 318 319 321 321 321
307 315 313 313 310 311 311 309 307 309 312 312 313 315 316 319 320 315 310 307 305 301 298 297 297 297 297 297 298 298 297 297 298 298 299 300 301 303 304 307 309 311 313 314
308 312 313 312 311 309 308 308 309 309 311 315 317 316 318 320 319 315 311 307 304 299 297 296 295 295 295 294 294 296 296 295 296 296 296 298 299 299 299 300 301 302 302 303
309 309 310 309 307 306 309 308 310 312 313 315 314 318 318 314 308 307 305 304 301 299 296 295 294 294 293 292 293 292 292 293 293 294 294 294 295 297 299 299 300 299 296 294
308 312 311 308 308 306 305 310 310 312 313 314 315 315 314 307 304 300 297 296 294 293 293 293 293 292 291 291 291 291 291 291 290 290 291 292 293 294 295 296 295 296 294 292
306 308 312 309 306 306 312 310 309 309 311 312 311 312 314 312 317 302 295 293 292 290 290 290 291 291 290 290 290 290 290 288 288 289 289 289 290 291 292 292 292 292 291 290
309 309 310 309 307 307 309 309 309 307 312 309 307 305 308 312 300 293 290 290 290 290 289 289 289 289 289 289 289 289 288 287 287 287 287 287 288 289 289 290 290 290 290 289
307 309 310 308 308 308 308 311 311 309 307 305 302 299 295 293 291 290 290 289 289 290 289 289 289 288 288 288 288 288 287 285 286 286 286 286 286 287 288 288 288 288 288 288
308 309 310 309 311 307 304 304 301 303 304 302 300 297 294 292 290 289 288 288 288 288 289 288 287 286 286 286 287 286 285 285 286 285 285 285 285 285 286 286 287 287 287 287
307 305 308 309 303 302 301 298 297 296 297 295 294 292 291 290 289 287 286 286 286 286 286 287 287 286 285 285 285 285 285 285 285 285 284 284 284 284 284 284 284 285 285 285
304 305 304 305 301 300 298 297 296 295 293 292 292 292 291 290 289 288 286 285 284 284 284 284 285 284 284 284 284 284 285 285 284 284 284 284 283 282 281 280 281 281 280 282
300 300 303 305 299 298 295 294 294 294 293 292 292 290 289 287 286 285 284 283 283 282 282 283 282 282 282 282 282 282 283 284 285 284 284 283 283 283 282 280 278 277 277 278

GFSCGP_925_thetae_081.txt.gz
Theta_e
311 312 312 312 313 312 312 312 312 313 312 312 313 314 314 314 315 317 320 320 321 321 320 319 321 323 329 333 337 339 338 337 335 333 332 331 331 331 330 329 329 329 329 329
313 312 312 311 311 311 311 312 312 312 313 315 316 317 317 317 316 316 317 320 321 321 321 320 321 323 331 334 337 339 337 336 334 332 331 330 331 331 330 330 328 328 327 328
315 315 314 313 313 312 312 312 313 315 316 316 316 317 318 319 319 318 318 318 319 322 321 320 320 324 331 333 337 338 337 335 333 332 331 330 328 330 329 330 330 328 329 329
313 313 313 312 313 313 314 314 315 316 316 316 317 320 318 317 318 319 319 319 319 321 321 321 320 324 330 332 335 337 336 335 333 332 330 330 330 328 329 329 329 328 329 329
311 312 314 313 312 314 315 315 317 316 315 315 316 318 317 319 320 320 320 319 319 320 321 320 320 322 328 332 335 336 336 335 333 332 331 330 328 329 329 328 328 327 326 325
312 312 312 314 315 315 313 315 316 315 314 317 317 318 318 320 322 322 322 322 321 321 322 322 320 320 326 331 335 336 335 334 333 333 331 329 328 328 329 328 328 326 325 324
315 314 314 314 314 314 315 316 314 313 319 320 318 319 319 320 324 323 324 324 326 326 326 324 322 323 325 331 335 335 335 333 333 332 331 329 328 329 327 328 327 325 324 323
311 311 312 313 314 314 314 315 314 317 318 321 321 321 324 324 323 324 325 326 326 328 331 328 325 325 328 331 334 335 335 332 333 332 330 328 328 328 329 328 327 326 325 324
311 311 312 313 314 314 316 316 314 316 318 318 316 317 323 325 324 324 325 325 325 324 326 330 326 329 329 333 334 333 333 330 331 331 330 327 327 327 327 327 327 327 326 325
311 311 313 314 314 315 315 317 322 319 321 321 319 319 331 327 325 324 323 321 320 318 318 325 328 330 330 333 330 329 330 328 329 330 328 327 327 326 327 327 326 325 324 324
315 312 311 312 315 315 317 318 319 321 322 323 325 331 324 321 320 319 318 317 314 312 311 316 321 330 331 328 326 328 327 327 327 327 327 325 325 326 326 326 325 324 325 324
314 319 313 311 312 314 314 317 318 322 319 322 324 325 319 319 317 315 316 312 309 307 306 307 311 313 325 325 325 326 327 325 325 325 325 324 324 324 324 324 324 323 323 323
309 315 315 313 313 313 314 314 317 319 321 321 324 326 319 319 320 317 314 311 306 304 303 303 304 306 308 310 316 318 325 326 324 324 324 323 323 324 324 323 323 322 322 321
307 308 314 314 314 317 319 315 317 319 322 320 321 317 322 322 322 319 314 310 304 302 301 301 300 301 302 303 304 305 308 315 319 319 319 319 320 322 323 323 324 323 322 321
309 310 309 312 312 313 316 318 316 318 317 316 314 312 314 318 321 319 313 308 304 301 299 298 298 298 298 299 299 300 301 303 305 306 307 307 310 315 317 319 320 320 319 318
308 309 309 311 314 313 314 315 312 311 310 311 312 313 317 321 321 318 312 308 304 301 298 296 296 296 296 296 297 297 297 298 299 300 300 301 303 305 307 308 308 312 313 313
306 309 309 309 315 313 313 312 311 309 311 311 316 318 319 319 320 315 309 306 302 299 297 296 296 294 293 293 294 295 296 298 297 297 298 300 301 300 301 302 302 300 299 301
308 308 309 310 314 314 310 308 309 309 311 314 315 317 316 311 305 303 304 302 299 298 296 294 293 292 292 292 292 293 292 292 294 296 296 298 299 300 300 299 297 295 294 293
305 308 309 315 311 309 307 310 311 312 317 313 313 313 313 306 304 299 297 296 295 294 293 291 292 292 291 291 291 290 291 291 291 291 292 295 296 297 297 296 295 294 293 291
305 308 308 311 311 310 313 311 310 310 314 311 311 311 312 310 316 301 294 292 291 291 290 291 291 290 290 290 290 289 289 289 289 290 291 292 292 294 293 293 293 293 293 292
308 309 310 313 309 311 311 310 309 309 315 310 308 305 302 303 297 292 291 291 290 290 290 289 290 291 290 291 289 289 289 289 288 288 289 290 290 291 292 292 292 292 292 291
307 307 309 309 310 311 308 311 313 308 308 306 303 299 295 293 291 291 290 290 291 291 291 290 290 290 291 291 290 290 289 287 287 288 287 287 288 289 290 291 290 290 291 290
309 310 313 311 313 305 303 303 301 303 303 302 299 296 294 292 291 291 290 290 290 291 291 291 290 290 289 290 290 289 289 288 288 288 288 287 287 286 287 288 289 289 290 289
308 306 309 311 302 301 300 299 297 297 297 295 295 294 293 291 290 289 288 288 287 288 289 289 289 288 287 288 288 288 288 288 287 286 286 286 286 286 285 284 283 284 286 287
305 306 305 304 301 301 298 298 298 296 294 294 294 293 292 291 290 289 288 286 286 286 287 287 287 286 286 286 287 287 287 287 287 286 286 285 283 282 280 279 281 281 280 281
300 299 303 305 300 299 296 295 296 295 295 294 293 292 290 288 287 287 286 285 285 284 284 284 284 283 283 283 283 284 286 287 287 286 286 286 286 284 282 280 278 277 278 278

GFSCGP_925_thetae_084.txt.gz
Theta_e
312 311 311 312 313 313 313 313 313 313 312 312 313 313 313 314 314 315 315 316 319 320 321 320 320 318 321 326 339 343 341 339 339 335 332 332 330 330 330 330 330 331 331 331
312 312 313 313 313 312 312 312 312 312 312 313 314 315 316 317 318 317 315 316 317 320 320 321 321 321 326 334 338 343 340 339 338 335 332 333 331 331 329 329 328 329 330 330
314 314 314 315 314 314 313 312 312 312 312 314 316 316 316 317 316 317 317 317 316 318 320 321 322 322 329 334 339 342 340 339 337 334 333 331 331 330 329 329 329 329 328 328
313 313 313 314 314 313 314 313 313 315 315 318 315 318 316 315 317 319 319 318 318 318 318 321 322 322 332 333 339 340 340 338 337 334 332 331 330 330 329 329 329 329 330 329
312 312 312 313 313 312 311 313 315 315 317 318 317 315 315 316 317 318 319 321 320 319 319 321 322 322 332 333 339 340 339 337 336 334 332 331 330 329 329 330 329 329 328 329
311 311 312 311 312 313 314 314 314 315 317 320 318 314 315 316 322 323 324 324 327 322 320 320 322 321 329 332 338 339 338 336 335 334 332 331 330 329 328 329 328 327 326 325
314 314 313 313 314 313 315 316 315 315 315 318 321 324 319 324 324 323 324 327 327 327 328 330 329 322 323 333 338 339 338 336 335 334 334 331 331 329 328 328 328 325 325 323
310 311 312 314 315 314 314 315 318 315 319 317 317 328 326 323 325 324 324 323 323 323 322 324 325 323 327 335 338 338 337 336 335 335 333 331 329 327 328 329 328 326 325 325
313 312 313 313 313 313 314 315 314 317 316 317 317 320 327 324 323 322 321 320 319 318 317 319 320 323 328 334 338 337 337 335 335 334 332 330 328 327 329 328 327 326 325 324
314 316 311 313 314 314 314 315 321 322 321 318 316 320 329 324 322 320 319 318 316 314 312 313 313 317 334 336 336 335 335 333 334 333 332 329 328 326 327 327 328 328 326 325
311 314 317 315 317 316 315 317 316 319 320 322 326 328 319 321 320 319 318 315 312 309 307 307 308 309 315 330 330 329 330 330 331 331 330 328 326 326 327 327 326 325 325 325
308 314 317 315 313 314 314 314 318 322 319 321 322 324 321 320 319 318 316 313 309 305 304 303 303 304 306 310 319 327 327 328 328 328 327 326 325 327 327 326 325 325 324 324
307 310 312 312 311 312 313 314 318 321 321 321 323 322 320 320 320 318 315 312 307 304 302 301 301 301 302 303 305 308 318 326 326 325 325 324 323 324 325 325 324 324 323 321
306 306 308 313 313 312 316 318 317 317 323 320 320 319 318 322 322 320 313 308 304 301 300 299 298 298 298 299 300 301 304 314 320 320 320 320 321 322 321 324 323 323 322 320
305 305 305 308 309 309 312 316 315 316 320 320 317 314 321 322 323 316 311 308 304 301 299 298 297 296 295 296 297 299 299 302 307 310 311 310 314 315 317 317 316 319 320 319
306 307 305 306 306 308 312 313 315 315 318 318 317 315 319 319 318 314 310 307 303 301 298 297 295 294 294 293 295 296 298 298 300 302 303 305 307 310 308 306 309 311 309 308
304 306 307 307 306 308 314 312 312 313 315 314 316 319 315 313 310 309 306 303 301 298 297 296 294 293 292 292 292 293 293 296 298 299 301 302 302 300 300 300 299 299 299 299
305 306 307 309 308 310 310 310 311 311 316 316 314 316 312 307 302 299 299 299 297 295 295 294 294 292 291 291 291 291 291 292 293 295 297 299 299 298 296 296 294 293 293 293
305 306 308 310 310 311 311 310 311 312 315 311 312 311 311 305 302 297 295 294 293 293 293 291 290 291 291 290 290 290 290 291 291 291 293 295 296 296 295 294 293 292 291 290
304 306 308 307 309 316 316 311 310 310 318 309 309 307 306 308 312 299 293 292 291 290 290 290 290 290 289 289 289 289 289 289 290 290 291 292 293 293 294 294 293 292 290 289
306 307 308 309 310 314 307 309 310 310 313 307 304 301 298 298 295 292 291 291 290 290 290 290 290 290 290 289 288 288 289 289 288 289 289 290 291 291 291 291 292 291 289 288
306 308 309 309 314 313 304 307 310 306 304 303 299 297 294 292 291 291 291 291 292 292 290 290 290 290 290 290 289 289 288 287 287 288 288 288 289 290 290 291 291 290 289 288
310 309 310 307 307 304 301 301 299 300 300 299 298 295 293 292 291 290 290 289 289 291 291 290 290 289 290 290 290 289 288 288 288 287 287 286 286 286 286 286 287 288 288 288
306 306 308 308 302 300 299 298 296 296 296 296 295 294 292 291 290 289 288 288 288 289 289 289 288 288 288 289 289 289 288 287 286 285 284 283 282 282 283 282 282 283 285 285
302 303 303 303 302 300 297 298 297 296 295 294 293 293 292 291 290 289 288 287 286 286 286 286 286 285 285 284 284 287 288 288 287 286 284 283 281 280 279 279 280 279 280 282
299 299 300 303 299 298 296 296 294 294 296 295 293 291 290 288 288 287 286 284 284 284 284 283 283 283 282 283 283 283 285 287 286 286 286 286 283 282 280 278 277 278 278 278

GFSCGP_925_thetae_087.txt.gz
Theta_e
309 307 306 306 307 309 310 310 310 310 310 310 309 309 310 310 311 311 311 312 312 312 313 317 318 318 319 318 335 341 340 339 338 338 336 334 332 332 335 333 332 332 332 333
310 309 309 310 310 311 311 310 309 309 309 310 309 309 309 312 313 312 313 313 312 312 313 317 317 318 318 319 338 341 340 339 338 336 335 332 330 330 331 332 330 331 331 331
311 311 312 311 312 313 312 312 311 310 310 310 310 311 312 313 313 313 313 314 315 312 312 315 317 317 319 330 340 339 339 338 337 336 335 332 329 329 329 329 328 327 328 330
310 312 313 312 314 313 313 312 313 311 312 316 315 318 315 314 313 313 320 318 313 314 313 314 316 316 328 340 340 339 338 337 337 336 334 332 330 329 329 327 327 327 328 329
311 311 310 312 311 312 312 311 311 312 313 313 314 316 314 314 314 313 325 325 318 314 315 315 314 316 328 338 340 338 338 337 336 334 332 331 330 330 329 328 328 329 329 328
309 309 309 309 311 311 312 314 314 314 313 315 314 318 319 318 316 325 327 324 321 320 320 320 320 321 322 337 340 338 338 337 336 334 332 330 330 329 328 328 329 329 328 329
311 310 310 310 310 311 312 314 316 314 314 315 316 318 322 326 326 324 324 321 319 317 316 316 316 316 319 323 338 337 336 335 335 334 332 330 329 329 328 329 329 328 327 326
305 307 308 311 311 312 312 313 316 319 318 317 315 318 324 319 321 320 319 318 316 313 312 312 312 312 314 321 337 337 335 334 334 333 331 331 329 329 328 328 328 326 325 325
315 313 312 313 313 313 314 313 313 316 316 316 314 313 323 320 321 320 319 316 313 310 308 309 310 309 313 330 336 336 335 334 333 333 333 331 330 328 328 328 327 326 325 325
309 313 313 313 313 312 312 313 314 318 323 322 318 325 327 321 320 319 318 314 310 307 306 306 306 307 309 314 325 331 334 333 333 333 332 330 328 327 328 328 327 326 325 324
304 312 312 311 313 313 313 314 315 317 320 321 322 324 318 320 320 320 316 311 308 305 304 303 303 303 305 307 311 319 329 331 333 333 330 328 327 326 328 327 327 327 325 324
307 310 308 308 307 308 312 316 316 317 318 319 321 324 319 320 319 316 313 309 305 303 302 301 300 299 301 302 303 306 315 327 329 330 328 327 326 325 326 327 327 326 325 325
305 306 308 305 307 311 313 314 314 318 319 322 321 322 320 319 319 313 309 305 303 301 301 299 298 297 297 299 300 302 304 320 326 326 325 325 325 326 327 326 325 325 325 324
304 305 306 307 307 307 311 311 311 315 320 322 321 318 319 321 318 312 307 304 301 300 299 298 297 296 295 296 296 299 300 305 316 320 321 321 321 323 324 324 324 323 322 322
304 304 304 304 303 304 305 309 310 312 315 319 320 320 322 318 314 311 307 304 301 300 298 296 296 295 294 294 295 295 298 300 306 310 315 313 314 318 320 321 321 321 320 318
303 303 304 303 304 305 305 305 308 311 315 318 317 318 317 314 311 308 306 303 300 298 297 295 295 294 293 293 293 293 294 297 301 303 304 306 311 308 309 310 311 313 311 309
300 300 305 303 305 307 308 308 308 313 315 315 317 317 313 308 305 304 302 300 298 296 295 294 293 293 292 291 291 291 293 294 295 299 300 299 299 300 300 299 298 298 298 299
300 301 304 304 305 308 306 309 310 315 313 313 314 310 307 302 298 297 296 296 295 294 293 292 292 291 290 290 290 292 291 292 293 294 296 297 296 295 295 295 293 292 292 292
302 303 305 306 306 307 309 311 310 313 314 308 308 306 305 300 297 295 293 292 292 293 292 290 290 290 289 289 290 291 291 291 291 291 292 294 294 294 293 292 290 289 289 288
304 303 303 307 308 308 311 307 304 306 314 305 303 301 300 304 308 295 292 292 291 290 290 291 290 289 289 289 289 289 289 289 289 290 290 291 292 292 291 290 289 287 287 286
304 305 306 307 305 309 305 302 304 311 309 301 299 296 295 295 293 292 291 291 290 290 290 290 290 289 289 289 288 288 288 287 288 289 290 290 290 290 290 289 289 287 286 285
306 307 308 308 308 309 300 303 305 305 300 298 296 293 292 291 291 290 289 289 291 291 290 290 290 290 290 289 289 288 287 287 287 287 287 287 288 288 289 289 288 287 286 286
309 308 307 305 304 301 298 298 298 298 298 297 295 293 291 290 289 289 288 288 288 290 289 289 289 289 288 289 288 287 287 287 285 285 284 284 284 285 286 286 286 287 286 285
302 302 306 305 300 298 298 297 296 296 295 293 292 291 289 287 287 286 286 286 285 287 287 286 285 285 285 285 286 287 286 285 284 283 282 282 282 282 282 282 283 283 283 283
300 300 301 303 300 297 296 297 297 295 293 292 292 291 290 288 288 287 286 285 284 284 284 284 283 283 283 283 284 286 287 286 284 283 281 280 280 279 279 279 279 280 281 281
298 298 298 299 297 296 296 295 293 293 294 292 290 289 288 286 285 285 284 283 282 282 282 281 281 281 281 281 282 284 285 286 285 285 284 282 280 279 278 278 278 279 279 279

GFSCGP_925_thetae_090.txt.gz
Theta_e
307 306 305 304 304 306 308 308 308 308 307 309 307 307 308 308 307 308 309 310 310 310 311 310 312 314 315 315 316 334 341 341 340 338 337 336 337 338 337 336 336 335 334 334
309 308 308 307 307 307 308 308 308 308 308 308 308 308 309 308 307 309 311 311 311 312 312 312 311 313 316 314 319 339 340 340 339 338 336 333 334 332 331 335 334 334 334 332
309 310 310 309 309 310 310 309 309 311 310 308 308 310 311 310 310 311 312 313 319 319 316 313 312 311 315 314 334 339 339 338 337 336 334 333 331 331 331 332 333 333 332 333
309 310 311 311 311 310 311 311 311 311 310 311 312 315 312 312 312 312 312 320 319 317 318 315 316 317 317 316 330 338 338 337 336 335 333 332 330 328 329 329 331 331 331 331
310 309 309 309 310 311 311 311 311 310 311 312 312 312 312 316 325 323 323 321 318 315 314 315 316 316 318 329 336 338 338 336 333 334 334 331 328 327 327 328 330 327 326 328
307 308 308 308 309 309 311 313 312 312 312 315 312 312 314 324 322 319 320 319 317 314 312 312 313 313 313 323 338 338 337 334 333 333 332 331 328 328 328 328 327 327 327 328
309 310 309 309 308 308 310 311 314 315 313 315 313 315 316 319 319 318 320 319 314 312 310 310 311 312 312 315 323 337 336 333 333 332 331 330 330 329 328 327 327 326 328 328
306 307 307 310 309 309 309 311 314 319 316 312 313 315 322 319 317 316 319 316 312 309 308 308 309 308 310 314 325 336 335 333 331 331 329 330 330 329 328 327 327 327 327 328
308 311 308 311 309 309 312 312 311 314 313 316 314 319 320 319 319 319 319 314 309 306 306 306 306 305 307 310 317 334 335 333 330 329 330 330 330 328 328 327 328 328 327 327
304 304 311 308 309 310 312 313 311 311 317 319 316 317 323 321 320 320 317 312 306 304 303 303 302 302 304 306 309 321 331 332 330 329 330 329 329 328 327 327 328 327 326 325
304 308 306 304 310 306 306 309 314 314 316 318 317 316 319 319 319 320 313 308 303 302 302 300 300 300 301 303 305 310 318 330 330 330 329 329 328 328 327 328 327 327 326 324
305 307 308 304 304 304 306 313 317 319 318 316 316 316 319 318 318 312 308 305 302 300 299 299 298 298 298 299 301 304 309 315 329 328 329 327 328 328 327 327 327 326 325 324
303 303 304 299 302 307 308 307 308 312 315 317 320 317 318 319 312 308 306 302 301 299 298 297 297 296 296 296 297 299 303 306 321 326 326 326 326 327 326 326 326 327 325 324
303 303 303 303 303 304 304 303 304 309 314 315 315 319 319 318 314 309 305 301 301 299 297 296 295 295 295 295 295 296 298 302 309 317 322 324 325 325 326 325 325 324 324 324
302 303 303 303 303 303 304 304 304 305 307 313 316 317 318 315 312 308 304 302 300 298 296 295 294 294 293 294 294 294 296 298 303 308 309 312 320 323 323 323 322 321 321 318
300 301 301 299 300 302 303 304 304 305 305 309 311 318 308 308 307 305 303 300 299 297 295 294 293 292 292 292 293 294 294 295 299 300 300 302 307 312 313 315 313 314 312 310
298 297 300 299 302 303 304 306 305 305 310 314 316 316 309 304 301 299 299 297 296 294 294 293 292 291 290 290 291 292 293 294 295 297 297 297 297 298 297 300 302 302 301 301
297 298 300 303 303 305 306 308 309 312 311 311 310 310 305 299 296 295 294 294 294 293 292 292 291 290 290 289 289 291 292 293 293 293 294 294 294 293 292 292 292 293 294 294
299 300 303 303 305 304 305 310 307 306 308 304 305 306 301 297 296 294 293 292 292 292 292 290 289 289 289 289 289 289 290 290 290 290 291 292 292 291 289 288 288 288 289 289
302 301 302 305 306 304 306 302 303 304 309 303 300 299 301 299 306 294 292 291 291 291 290 290 289 289 289 288 288 288 288 288 288 288 289 290 290 290 289 287 287 286 286 285
303 304 304 304 305 306 301 301 301 310 305 298 295 294 296 295 294 292 292 291 290 290 290 290 290 289 289 288 288 287 287 287 286 287 287 289 289 288 288 287 286 286 285 285
307 307 307 307 307 307 298 300 302 302 298 295 293 292 291 291 290 289 289 291 290 290 289 288 287 286 288 288 288 287 286 285 286 287 286 286 287 287 287 287 286 285 285 284
305 302 304 303 301 300 297 298 297 297 297 295 293 291 290 288 287 286 285 284 286 288 286 286 285 285 285 286 287 286 285 284 284 283 283 284 285 285 286 285 285 284 284 283
300 300 303 301 298 297 298 297 295 294 292 291 290 288 286 285 284 283 283 283 283 284 284 284 284 284 284 284 285 285 284 283 283 282 281 282 282 282 282 283 283 282 282 282
298 298 299 299 297 296 295 294 295 292 291 290 290 289 287 286 284 284 283 282 282 282 282 281 282 282 282 283 284 285 286 284 282 281 280 280 280 280 280 280 280 280 280 280
297 296 298 295 295 294 294 293 292 293 291 289 288 287 285 284 283 281 281 281 281 280 280 280 279 279 280 281 282 283 285 285 284 283 281 280 279 278 278 278 279 280 280 279

GFSCGP_925_thetae_093.txt.gz
Theta_e
305 304 305 304 304 306 307 308 307 306 305 307 307 307 307 306 305 304 307 307 307 307 311 315 311 311 311 312 311 313 336 340 341 339 338 337 338 339 340 341 341 338 337 335
307 307 307 306 305 305 306 306 306 306 307 306 305 308 308 307 306 305 306 309 317 316 315 316 315 315 310 311 312 314 333 337 340 339 338 337 338 337 338 339 339 337 336 335
308 309 309 308 308 308 307 307 308 308 309 308 307 309 309 309 310 319 318 318 317 316 314 313 314 314 314 316 312 320 331 336 338 338 336 335 336 335 334 336 336 334 335 334
309 309 309 309 310 309 309 309 309 310 309 311 308 312 311 310 321 320 319 317 316 315 313 312 312 313 312 313 317 323 332 336 338 337 335 333 333 333 333 334 334 333 334 334
307 309 309 309 310 309 310 310 310 311 310 311 311 310 309 316 321 319 316 317 315 313 311 310 312 311 311 312 315 326 335 336 337 335 334 332 332 331 330 331 330 333 333 332
307 307 308 307 308 308 309 311 311 310 311 313 310 310 309 321 319 318 317 318 315 312 309 309 308 309 308 310 314 330 336 336 335 333 332 332 330 328 328 328 328 330 331 331
309 308 308 308 308 308 309 309 311 312 313 314 310 312 310 318 318 318 318 318 312 310 307 307 306 306 306 308 311 322 337 336 333 332 330 331 329 328 328 326 326 327 326 327
308 309 309 309 310 310 308 309 312 316 316 311 311 313 313 319 318 319 319 313 310 307 305 305 304 303 304 306 308 316 336 334 332 331 331 329 329 327 327 326 326 326 325 325
305 310 305 308 305 308 310 310 309 312 312 314 312 313 318 319 319 319 316 310 307 305 303 303 302 301 302 303 305 309 330 332 332 331 329 328 327 328 326 326 326 325 326 327
303 303 307 303 307 306 305 309 311 311 320 318 314 314 314 319 318 319 313 307 304 302 301 300 300 299 301 301 303 306 315 332 330 329 329 327 327 327 328 327 326 326 326 326
304 304 304 301 305 304 303 307 311 314 315 318 316 311 315 317 317 314 309 305 302 300 299 298 298 297 298 300 300 303 308 325 329 328 328 327 327 327 328 327 326 327 327 326
303 304 306 302 302 302 303 312 312 314 315 312 316 314 314 313 311 309 306 303 301 298 297 297 296 296 296 297 299 300 303 309 323 329 328 327 327 326 326 326 327 327 326 325
301 302 301 298 301 303 304 303 304 306 309 312 315 314 313 312 310 306 304 302 300 298 296 296 295 295 294 295 297 298 299 303 309 325 326 326 326 326 326 326 326 325 324 324
302 302 302 301 300 302 303 303 303 304 304 307 309 309 313 314 313 307 303 301 299 297 296 295 294 293 293 293 294 296 297 300 304 309 320 323 326 326 326 326 325 324 324 323
301 302 302 302 302 300 299 300 301 303 303 305 304 308 309 311 307 305 302 300 298 296 295 294 293 292 292 292 293 294 295 297 300 301 305 309 309 318 323 324 324 323 322 321
298 301 299 300 297 297 300 301 302 302 303 303 303 304 310 307 304 301 299 298 296 295 294 293 292 292 291 291 291 292 294 295 297 296 297 298 301 301 308 311 311 314 312 313
298 296 298 299 300 301 301 303 308 303 302 305 305 309 307 304 299 297 297 295 294 293 293 292 292 291 290 290 290 291 291 292 294 295 294 293 293 293 294 297 299 300 301 303
297 297 296 300 300 302 303 305 305 308 308 308 311 307 304 298 296 294 293 293 293 293 291 291 290 289 289 289 289 289 289 290 290 291 292 292 292 291 291 291 291 291 293 294
297 298 297 298 301 302 303 305 304 305 307 303 306 303 298 296 295 293 292 292 292 292 291 290 289 289 288 288 288 288 288 288 288 288 289 290 290 291 290 288 288 288 288 288
299 299 300 304 299 302 301 300 301 303 307 299 299 298 302 298 305 294 292 292 291 290 290 290 289 289 288 288 287 287 286 286 286 286 287 288 288 288 288 288 288 288 287 286
303 302 302 302 303 303 298 299 300 307 303 296 294 294 296 294 293 292 291 291 290 288 288 287 286 287 288 287 286 285 284 284 284 286 287 287 287 287 286 286 286 286 286 286
305 304 305 304 306 306 297 299 300 300 296 294 292 292 291 290 289 288 287 287 287 286 286 285 285 285 286 286 285 285 284 283 284 285 285 285 286 286 286 285 285 284 284 284
303 301 302 300 300 299 296 296 295 296 295 293 292 290 288 287 285 283 284 282 283 284 284 284 284 284 284 285 284 284 283 283 283 283 283 283 284 284 284 284 284 283 283 283
299 299 301 300 297 296 296 294 293 292 291 289 289 287 286 283 282 281 281 280 280 281 281 282 282 282 282 283 284 284 283 283 282 282 281 281 281 282 282 282 282 282 282 281
297 297 298 298 297 295 294 294 292 290 290 289 288 287 285 283 282 282 282 281 280 279 280 280 280 280 280 282 283 284 284 283 282 281 281 280 280 280 280 280 280 280 281 281
297 297 297 295 295 294 293 292 292 290 289 288 286 285 283 282 281 280 280 280 279 278 278 278 278 278 279 280 282 282 283 284 283 281 280 279 279 279 279 280 280 280 280 281

GFSCGP_925_thetae_099.txt.gz
Theta_e
305 307 307 307 307 307 309 309 309 309 307 306 308 309 310 310 308 309 309 319 319 317 315 314 313 313 313 314 314 315 315 316 313 332 335 334 334 335 334 333 332 334 333 335
305 308 307 306 305 306 307 307 307 307 306 307 310 311 310 310 309 310 320 318 318 317 316 314 312 312 311 311 311 312 313 314 314 325 333 334 334 335 335 334 333 333 332 333
307 309 307 306 305 306 306 307 309 310 309 309 309 311 310 308 315 319 318 316 316 316 314 313 311 310 309 309 309 310 311 312 314 317 332 335 335 336 334 335 334 333 333 333
309 309 307 308 308 308 309 308 309 310 310 313 310 312 310 312 314 319 317 318 317 315 312 311 309 308 307 307 306 306 308 311 314 318 329 334 333 333 334 335 334 334 333 332
312 309 310 310 310 309 310 310 310 310 311 311 312 312 311 311 317 318 318 319 315 313 310 308 307 306 305 304 303 304 305 308 313 320 326 335 334 334 334 335 334 333 332 333
308 306 308 309 309 309 309 310 311 310 312 313 312 311 310 312 317 317 318 318 313 309 307 306 304 303 302 301 301 302 304 306 310 321 327 334 334 334 334 333 333 334 331 325
307 307 307 307 308 308 309 310 310 312 314 311 310 311 311 311 316 318 319 314 310 306 304 303 303 301 300 299 299 300 302 304 308 316 331 335 333 333 334 333 332 330 327 323
308 308 308 306 310 311 309 310 310 311 313 312 310 313 313 315 319 315 311 309 306 304 302 302 300 299 298 298 298 299 301 303 306 317 333 334 333 332 333 333 328 328 327 327
310 310 307 305 304 308 310 311 310 312 312 312 311 311 314 318 318 313 310 307 305 302 301 300 299 298 297 297 297 297 299 302 306 315 332 332 331 330 330 333 332 329 329 329
303 305 305 304 306 303 309 309 316 315 313 311 311 313 315 317 316 312 310 307 304 301 300 299 298 296 295 295 296 296 298 300 305 311 331 330 329 329 328 327 327 328 328 327
304 304 303 302 303 301 301 305 313 313 315 316 313 314 314 314 311 310 307 305 302 300 299 298 296 295 294 294 294 295 296 299 303 305 325 327 326 326 326 327 327 327 326 322
303 304 302 302 302 302 305 310 310 309 311 311 313 314 312 311 309 307 305 303 301 299 298 297 296 294 293 293 293 294 295 296 300 301 311 325 325 325 325 326 325 325 323 325
301 301 299 301 303 302 303 303 302 303 305 305 310 310 311 309 306 303 303 301 300 298 297 296 295 294 293 292 292 292 293 294 297 298 301 307 315 322 324 324 323 324 324 324
302 301 299 299 302 302 302 302 301 301 305 303 304 302 301 301 305 304 302 300 298 297 295 295 294 293 292 291 291 291 291 292 293 296 297 298 300 306 314 324 323 323 324 323
302 301 302 301 301 301 301 300 299 298 298 299 296 298 300 300 303 303 300 298 296 295 294 293 293 292 291 290 290 290 290 290 291 293 294 295 295 299 302 312 318 321 323 323
299 303 300 300 300 300 299 299 297 298 298 300 302 304 304 303 302 300 297 296 295 294 293 292 291 291 290 289 289 288 289 289 290 290 291 293 293 295 297 296 307 300 312 314
299 300 298 296 299 298 297 299 298 303 304 305 305 305 305 302 300 297 295 295 294 292 292 291 290 290 289 288 288 288 287 287 288 289 289 290 292 292 293 295 293 295 292 302
298 298 298 297 298 295 303 302 303 302 303 302 302 304 305 300 295 294 293 293 293 292 290 290 289 288 288 287 286 287 286 286 286 286 287 287 288 290 291 294 294 292 290 289
298 299 299 299 300 299 303 301 300 301 302 297 297 300 296 294 293 293 292 291 290 289 288 287 287 286 286 286 285 285 285 285 285 285 285 286 286 286 288 290 291 291 290 287
297 299 299 301 301 301 299 298 298 299 303 295 294 295 296 296 300 293 290 289 287 287 286 287 286 285 285 284 284 284 284 284 283 283 284 284 285 285 285 286 286 288 288 286
300 299 300 301 302 302 297 296 297 303 299 294 292 292 297 292 291 288 287 286 285 285 286 285 285 285 285 284 283 283 283 282 282 282 282 283 284 284 284 285 285 285 285 285
303 302 301 301 302 302 295 296 297 295 294 292 291 290 289 287 286 285 284 283 283 284 284 284 284 284 284 284 284 283 283 282 281 281 282 282 282 282 283 284 284 284 285 284
301 299 301 300 299 296 294 293 292 292 291 291 289 287 286 285 283 282 282 281 281 282 282 283 283 283 283 283 283 284 283 282 282 281 281 282 282 282 282 283 283 284 284 284
299 298 299 298 296 295 294 292 291 290 289 287 286 286 284 283 282 281 280 280 279 279 280 281 281 281 281 281 282 282 283 282 283 282 282 282 282 281 282 283 283 284 284 284
296 297 298 297 295 294 293 292 290 289 287 286 285 285 284 282 282 282 281 280 279 278 278 279 279 280 279 280 281 281 282 283 282 281 282 282 281 281 281 281 282 283 283 283
295 295 298 297 295 294 293 291 290 289 287 286 285 284 282 281 281 280 279 279 278 277 277 277 277 277 277 278 279 280 280 282 283 282 281 280 281 281 280 281 281 280 281 281

GFSCGP_925_thetae_102.txt.gz
Theta_e
308 308 312 312 312 312 312 313 314 314 313 311 312 311 311 313 314 315 314 315 318 319 319 318 317 317 317 317 316 316 317 318 320 320 318 329 333 337 335 337 338 337 337 337
309 311 312 311 310 310 311 312 312 312 311 309 311 313 314 314 314 314 314 319 320 319 318 318 316 316 316 315 315 315 315 316 316 318 319 322 331 332 333 335 338 337 336 336
310 312 309 309 309 309 310 310 311 309 312 312 314 314 315 313 313 317 318 319 319 319 318 317 315 314 313 313 312 312 312 313 314 316 318 320 328 332 334 335 337 337 336 335
308 307 307 309 309 309 310 309 309 310 313 314 314 314 313 312 315 317 319 320 320 318 316 315 314 312 311 310 308 307 308 309 310 313 316 321 323 332 333 333 335 335 335 334
313 310 310 310 310 309 310 310 311 312 314 315 314 314 313 312 314 318 319 321 319 316 314 313 311 309 308 307 305 303 304 305 307 308 312 318 322 332 332 333 334 335 334 333
313 311 311 311 311 311 310 311 312 313 314 316 313 314 313 313 314 317 320 319 317 314 313 311 309 308 307 306 304 301 301 302 304 306 309 315 324 327 333 333 334 334 334 333
313 312 309 310 311 311 311 311 314 314 314 314 312 312 312 313 316 318 321 318 315 313 311 310 308 307 305 304 302 300 299 300 301 304 307 314 324 326 335 333 335 333 332 333
311 311 309 309 310 310 312 311 313 315 313 313 313 312 318 320 320 318 316 314 313 311 309 308 306 305 304 302 301 299 297 298 299 302 307 313 328 329 334 333 334 333 332 333
311 310 308 308 308 311 311 313 312 312 313 314 313 314 320 319 318 316 315 313 312 309 308 306 305 303 302 301 299 297 296 297 298 302 305 313 334 334 335 333 333 333 334 335
308 310 308 306 307 307 313 312 315 315 314 313 311 312 314 319 317 313 312 312 311 308 306 305 303 301 300 299 298 295 295 296 297 300 303 312 331 333 332 332 332 331 332 331
306 307 308 305 307 307 308 312 315 315 315 314 314 314 317 315 312 312 310 310 309 307 305 303 302 300 299 298 297 294 294 294 295 298 301 307 328 330 331 331 331 331 330 330
305 305 305 305 306 304 304 308 309 311 310 313 316 314 314 313 310 309 308 308 306 304 302 301 300 299 298 297 295 293 292 293 293 295 299 302 309 318 327 328 328 329 328 328
303 304 306 305 305 304 305 306 305 306 306 308 310 310 314 311 309 307 306 305 304 302 301 300 300 299 297 296 294 291 291 291 291 293 296 298 299 303 313 324 327 326 327 327
302 302 302 303 305 305 305 304 303 304 308 305 305 304 309 305 302 304 306 303 303 300 299 298 298 298 296 295 294 290 289 290 291 291 294 295 296 297 300 310 322 324 324 324
303 301 301 301 301 301 302 302 301 301 301 301 300 299 300 304 308 307 304 302 300 298 296 296 296 295 294 293 292 291 289 289 289 290 291 292 294 295 295 304 306 315 323 323
301 303 301 300 300 300 300 300 300 300 300 299 300 302 307 306 306 303 302 300 298 297 295 294 294 293 293 291 290 290 290 288 288 288 289 290 291 293 293 296 298 296 304 306
300 302 300 297 298 298 298 300 300 300 301 304 306 306 304 305 305 301 299 297 296 294 293 292 292 291 290 289 289 289 289 289 287 287 287 288 289 290 291 292 295 293 293 293
299 299 299 298 299 302 305 304 304 304 304 304 303 302 301 300 297 296 295 294 293 292 290 290 289 289 288 288 288 288 288 288 288 286 286 286 287 287 288 290 290 293 292 291
299 300 303 305 304 302 304 302 302 303 304 298 299 299 298 296 296 294 292 291 290 289 289 288 288 288 287 287 287 287 287 287 287 286 286 286 285 286 286 286 287 288 289 290
300 300 303 303 305 304 305 300 299 300 304 296 295 296 299 298 304 294 290 289 288 288 287 288 287 286 286 285 286 286 286 285 285 285 284 285 285 285 286 286 286 285 285 285
303 302 303 304 305 305 299 299 298 304 302 294 293 293 296 295 293 289 288 287 287 287 287 287 287 286 286 286 285 285 285 284 284 284 284 284 285 285 286 286 286 286 285 285
304 304 304 303 305 307 297 299 302 297 295 293 292 291 290 289 288 286 285 285 285 286 286 286 286 286 285 286 286 286 285 284 284 284 284 284 284 285 286 286 286 286 287 286
305 303 305 303 302 297 295 294 293 293 294 292 290 289 288 287 285 285 284 284 284 285 285 286 286 285 285 285 285 286 285 285 285 284 284 284 284 284 285 285 286 287 287 287
300 301 302 301 298 296 294 292 292 291 290 289 288 288 286 285 284 284 284 283 283 282 283 284 285 284 284 284 284 284 285 286 285 285 285 284 284 284 283 285 284 284 285 286
301 301 300 299 297 295 294 293 291 289 289 288 287 286 286 285 285 285 284 283 282 281 281 281 282 282 282 282 282 283 284 285 285 284 285 285 284 284 284 281 281 282 281 282
298 299 301 303 298 297 294 292 290 289 288 287 286 286 285 284 284 283 283 282 281 280 279 279 279 280 280 280 280 280 282 282 283 283 283 282 284 284 284 284 282 279 279 280

GFSCGP_925_thetae_105.txt.gz
Theta_e
313 315 317 318 319 318 319 320 322 320 320 318 317 317 317 316 315 315 316 316 316 318 320 319 319 319 319 319 319 319 319 319 320 320 322 322 321 326 333 336 337 340 341 341
314 315 316 317 315 316 317 318 319 319 318 316 316 316 315 315 315 316 317 317 318 320 319 319 318 318 318 317 317 317 316 317 317 318 319 321 322 322 328 333 335 337 340 341
315 316 313 314 315 316 317 317 316 317 317 316 314 314 315 316 317 316 315 318 320 320 319 318 317 317 316 315 314 314 313 313 315 316 316 318 321 322 324 333 334 335 338 339
314 314 314 313 314 314 316 314 313 315 315 314 315 318 318 317 315 315 318 320 320 320 318 317 317 315 314 313 312 312 311 311 311 313 314 315 319 322 322 327 333 334 335 338
316 313 313 314 314 311 315 312 313 315 312 314 316 318 318 316 315 316 319 320 320 319 317 316 315 313 312 312 311 310 309 308 309 309 310 310 313 318 323 324 332 334 336 337
316 314 314 313 310 310 312 314 313 314 314 317 317 317 318 316 315 317 320 320 319 317 316 315 313 311 311 310 309 308 307 306 306 304 304 306 309 313 320 325 330 334 337 336
316 315 313 312 314 312 313 316 317 318 319 322 316 316 317 315 315 318 321 320 318 316 315 313 311 310 309 308 307 306 304 303 303 301 302 304 307 310 316 323 328 335 336 335
321 321 315 312 312 316 314 315 316 319 317 316 314 315 321 320 321 320 319 318 316 314 312 311 310 308 307 306 305 303 302 301 300 299 299 301 305 309 315 322 328 332 336 335
315 314 311 310 311 311 316 316 312 315 315 317 318 320 322 320 319 319 317 316 314 312 311 310 308 306 305 304 303 301 301 300 298 297 297 300 304 310 321 328 329 333 336 335
313 315 311 310 309 310 312 314 314 315 320 316 316 317 321 322 319 317 314 313 311 310 309 308 307 305 304 303 302 300 299 298 296 295 296 299 302 307 324 330 332 333 334 335
310 311 311 309 310 310 311 318 316 317 317 318 318 321 320 320 316 314 312 310 308 308 307 307 306 304 303 302 301 299 297 296 295 294 295 298 300 303 313 330 331 332 333 333
311 311 313 310 308 307 308 310 312 318 315 317 315 317 316 315 313 310 308 307 307 306 305 305 305 303 302 300 299 298 295 295 294 292 293 295 297 299 304 314 325 331 332 332
308 310 310 309 308 307 307 308 309 309 310 309 312 314 315 312 311 307 305 307 306 305 304 303 303 302 300 298 297 297 294 292 292 291 292 293 294 297 298 302 311 327 329 331
305 307 309 309 308 308 307 306 306 307 311 308 307 306 311 305 304 307 310 307 306 303 302 301 301 300 298 297 296 295 294 291 290 290 290 291 292 294 296 297 301 305 321 328
305 306 305 303 303 303 305 305 305 304 304 304 303 302 302 307 308 309 306 305 303 300 299 298 297 297 295 294 293 293 292 292 289 288 289 289 290 291 293 294 295 302 304 315
303 305 304 303 302 302 301 301 301 302 302 302 302 301 308 307 307 306 303 302 300 298 296 295 295 294 293 292 292 292 291 291 289 288 288 288 288 289 290 291 292 297 295 298
303 305 302 301 300 300 300 302 302 301 301 302 304 307 305 305 302 300 300 298 296 295 294 293 292 291 291 290 290 291 290 290 289 288 287 287 287 288 288 289 289 291 291 295
301 302 301 301 301 300 306 305 305 306 305 306 305 304 302 300 297 296 295 295 293 293 291 291 290 290 289 289 289 290 289 288 288 287 287 287 287 287 287 287 286 287 288 289
300 301 304 306 304 305 305 304 304 304 306 300 301 301 300 298 297 294 292 291 291 290 290 289 288 289 288 288 288 288 288 287 287 286 286 287 287 287 287 287 286 285 284 285
301 303 306 305 307 305 308 302 302 302 306 298 297 298 298 299 303 295 291 290 289 289 289 289 288 287 288 287 287 287 287 286 286 286 286 286 287 287 288 287 287 286 285 284
304 304 306 306 306 306 302 301 301 306 303 296 294 294 297 299 294 290 289 288 288 288 288 288 288 288 287 288 287 287 286 286 286 286 286 286 286 287 287 288 288 288 287 286
305 305 305 305 307 309 300 301 302 298 296 294 293 293 292 291 289 288 287 287 287 288 288 288 288 287 287 287 288 288 287 287 286 286 286 285 285 286 286 286 287 288 288 287
307 306 309 305 305 297 297 295 294 295 295 293 292 291 290 289 287 287 286 286 285 286 287 287 287 286 286 286 286 287 288 288 288 287 287 286 285 284 285 284 284 285 287 286
303 303 304 303 299 297 295 294 293 293 292 291 291 289 288 287 286 286 286 285 284 284 285 286 286 285 285 285 285 285 286 287 287 287 287 287 286 285 283 283 283 282 282 284
304 303 302 300 297 297 295 294 292 291 290 289 289 288 288 287 287 287 286 285 284 283 283 283 284 284 283 282 283 283 284 285 286 285 285 286 286 286 285 282 281 281 280 280
302 304 303 306 300 300 296 293 292 291 290 289 289 288 287 287 286 285 285 284 283 282 282 281 281 281 281 280 280 281 282 283 284 284 284 284 284 285 284 284 283 280 280 278

GFSCGP_925_thetae_108.txt.gz
Theta_e
316 316 317 315 316 317 319 319 320 320 320 322 323 320 320 319 319 318 317 317 317 318 321 320 320 320 319 319 319 318 317 317 317 319 320 321 322 324 324 326 336 340 341 341
315 315 314 314 315 317 318 320 320 320 319 319 320 321 319 318 318 318 317 316 317 318 320 320 319 318 318 317 316 315 315 314 314 316 317 318 318 319 321 324 326 334 337 339
316 315 314 315 315 316 316 317 318 319 318 317 318 321 320 319 317 317 317 317 318 321 321 319 318 317 316 315 314 314 313 312 312 313 314 315 316 317 321 321 321 324 336 336
316 315 315 314 315 315 317 316 317 317 318 322 317 325 319 317 317 316 317 318 321 321 319 317 317 315 314 313 312 312 311 310 310 310 310 310 312 313 315 317 322 324 334 336
317 316 316 315 314 314 316 315 316 318 319 317 318 319 317 316 318 318 319 321 321 319 318 316 315 313 312 311 311 310 308 307 306 307 306 305 305 308 311 314 318 322 325 336
317 316 316 316 315 315 314 315 316 316 317 320 317 316 319 319 318 317 320 321 319 318 316 314 312 311 310 309 308 306 305 304 304 304 302 301 302 303 306 309 313 317 324 328
317 317 316 314 315 313 313 315 319 320 321 319 315 317 319 318 321 319 323 321 318 316 314 312 311 309 308 307 306 304 303 303 303 302 300 299 300 301 303 306 309 313 319 327
317 319 316 315 314 315 313 315 317 321 322 318 316 323 321 323 322 321 320 318 315 313 312 310 309 308 307 306 304 303 301 301 300 299 298 297 298 300 303 306 309 312 317 324
316 317 316 315 314 314 317 317 314 316 316 322 321 318 318 322 321 320 319 316 312 311 309 309 308 307 305 304 303 301 299 298 298 297 296 296 298 300 302 304 308 314 318 322
316 316 315 314 313 312 315 315 320 318 320 322 318 320 325 322 320 317 315 311 309 307 307 307 306 305 304 302 301 300 298 296 296 295 295 295 296 298 300 303 307 317 323 329
315 313 315 313 312 311 313 314 318 319 316 321 319 325 319 317 316 314 311 309 308 307 305 305 305 304 302 300 299 298 297 294 293 293 294 294 294 295 298 300 303 307 320 329
314 312 314 313 311 309 311 312 316 322 322 320 320 320 316 313 313 310 309 308 307 305 304 303 303 302 300 299 298 297 295 294 291 291 292 293 292 293 296 297 299 302 307 326
312 313 312 314 312 309 309 311 311 311 312 311 311 312 315 313 310 309 309 307 306 304 302 301 300 299 298 297 296 295 294 293 291 290 290 291 291 291 293 294 295 298 305 316
307 310 311 314 312 310 310 308 308 308 312 310 309 311 313 308 308 309 308 306 304 301 300 298 298 296 295 294 294 294 293 292 291 289 289 289 289 290 290 292 293 294 299 304
307 309 309 308 305 305 307 306 306 305 306 308 306 304 308 309 310 307 305 304 302 299 298 297 295 294 293 292 292 292 292 291 290 289 289 289 289 289 288 289 290 291 293 297
307 309 308 307 305 304 303 302 303 304 304 303 302 303 307 305 304 303 302 301 299 297 295 294 293 292 291 291 291 291 290 290 289 288 288 288 288 288 288 287 287 288 289 291
306 307 305 305 304 301 301 303 302 303 303 304 304 307 304 302 300 299 299 297 295 294 292 291 291 291 290 290 290 290 289 288 288 288 288 288 288 288 288 287 286 285 285 287
305 305 304 303 302 300 307 305 305 305 307 305 305 304 302 299 297 295 294 293 292 291 290 290 289 289 289 288 288 288 288 287 287 287 287 288 288 288 288 288 286 285 284 284
302 303 303 303 303 307 305 305 304 304 305 301 302 301 301 298 295 293 291 290 290 290 290 289 288 288 288 287 287 287 287 287 287 287 287 287 287 287 288 288 288 287 285 284
301 302 307 306 306 306 307 303 303 303 305 298 297 297 298 299 301 293 290 290 289 289 289 289 287 288 288 288 288 287 287 287 287 286 286 286 287 286 287 288 287 288 287 286
303 305 306 306 306 306 303 302 302 306 302 296 294 294 298 296 293 290 288 288 288 289 289 288 288 288 287 288 288 288 288 287 287 287 286 285 285 285 285 285 286 287 287 286
304 304 305 306 307 308 300 302 304 299 296 294 292 293 292 290 288 287 287 287 287 288 289 288 288 287 287 287 287 288 289 288 288 287 287 285 284 284 284 283 283 284 285 285
309 307 309 305 304 298 297 296 295 297 295 293 291 290 290 289 287 287 286 286 286 286 287 287 287 286 285 285 285 286 286 287 287 287 287 287 285 283 283 282 281 282 282 283
304 304 304 303 299 296 295 294 294 294 292 291 291 289 288 287 287 286 286 286 285 285 285 285 285 284 283 283 283 284 285 286 286 285 286 286 286 284 282 282 281 280 280 280
304 304 303 301 298 296 295 294 292 291 290 290 289 289 288 288 287 287 286 285 284 284 283 283 283 282 281 281 281 282 283 284 285 285 284 285 285 285 284 281 281 280 279 279
304 305 304 307 300 300 296 293 292 291 290 290 289 289 288 287 286 286 285 284 283 282 282 281 281 280 280 279 279 280 281 282 283 283 284 283 283 283 283 283 282 280 280 280

GFSCGP_925_thetae_111.txt.gz
Theta_e
315 314 314 314 315 315 315 315 315 315 316 318 318 318 316 316 317 317 313 314 313 319 318 319 318 317 317 316 315 314 314 313 313 313 313 314 316 317 318 320 322 324 329 337
314 315 314 314 314 314 313 314 315 315 315 316 316 316 315 315 316 317 317 313 313 320 318 317 316 316 314 314 313 312 311 311 310 310 310 311 311 314 315 317 318 319 321 323
314 314 314 313 313 313 313 315 314 314 314 315 315 316 316 315 316 318 318 314 315 319 318 315 314 313 312 311 311 309 308 308 307 307 307 307 307 309 310 312 314 318 319 321
314 313 315 315 315 313 315 313 316 317 318 320 315 321 316 314 315 317 319 315 318 317 315 313 311 310 309 309 308 307 306 305 304 304 304 303 303 304 305 306 308 310 314 315
316 315 314 317 316 314 316 315 315 315 316 317 316 319 315 314 315 316 318 318 317 314 312 310 309 308 307 307 305 304 303 303 302 302 301 300 300 300 302 303 305 307 309 312
315 314 316 316 315 314 314 314 314 314 317 319 315 317 315 313 317 318 320 318 315 311 310 309 308 307 306 305 303 302 301 301 300 299 299 299 298 299 300 301 302 304 306 309
317 316 315 316 316 313 313 313 316 314 319 316 313 318 316 315 319 322 321 317 312 310 308 307 306 305 304 303 301 300 298 297 297 298 297 297 297 297 298 300 302 304 306 308
317 316 315 315 315 314 313 312 314 318 318 321 316 321 319 322 320 317 314 312 310 308 307 306 305 303 302 301 300 298 297 295 295 295 295 296 296 296 297 299 301 302 305 308
316 315 315 314 314 314 316 315 312 316 314 315 315 319 320 314 318 316 313 311 308 306 306 305 303 302 301 300 298 297 296 294 293 293 293 294 295 295 295 296 299 302 305 308
316 318 315 315 314 313 314 313 316 316 318 319 317 321 316 314 311 312 310 308 306 305 304 304 302 300 299 298 297 295 294 294 292 291 291 292 293 293 293 295 298 299 301 304
315 315 314 314 316 314 314 315 317 317 319 320 321 324 310 309 310 310 308 306 304 303 302 301 299 298 297 296 295 294 293 293 292 291 291 291 291 291 292 293 294 296 297 300
315 314 314 313 313 313 312 313 314 317 318 318 319 321 312 311 310 310 307 304 302 301 299 298 297 296 295 294 293 293 292 292 291 290 290 290 290 290 291 291 292 293 295 297
315 314 315 312 312 312 311 311 315 315 315 315 314 317 314 313 310 307 304 302 300 299 297 295 294 294 293 293 292 292 291 291 290 290 289 289 289 289 289 289 289 291 292 294
309 312 311 312 313 312 310 309 310 312 310 310 309 316 313 310 307 305 302 300 298 297 296 295 293 292 292 291 291 291 290 289 289 289 289 289 289 289 288 288 287 288 289 290
309 309 309 310 311 307 306 307 308 309 308 307 307 310 310 306 304 302 300 299 297 296 294 293 292 291 290 290 290 290 289 288 288 288 288 288 288 289 288 287 286 286 287 287
307 309 308 309 308 305 304 303 302 303 303 303 307 307 303 302 301 299 298 297 295 293 292 291 291 289 289 289 289 288 288 288 288 288 288 288 288 288 288 287 286 285 285 285
305 306 307 308 307 305 301 306 306 307 306 307 307 306 301 299 297 295 295 294 293 291 290 290 290 288 288 288 288 287 287 287 287 287 287 287 287 288 288 287 287 286 285 284
306 305 305 307 301 303 306 305 306 306 303 303 303 302 299 296 293 292 291 291 291 290 288 289 288 288 288 287 287 287 287 287 287 286 286 287 286 286 287 287 287 287 286 285
304 304 303 305 306 307 306 305 302 301 302 299 300 300 296 293 291 291 290 290 289 289 289 287 288 288 288 288 288 288 287 287 286 286 285 286 285 285 285 285 286 286 285 284
301 303 303 305 306 304 303 304 302 302 300 296 295 295 298 295 297 290 289 289 289 289 288 288 287 287 287 287 288 288 288 287 287 286 284 284 284 283 283 283 284 284 284 284
302 303 305 305 305 305 304 303 303 300 298 294 294 292 295 291 289 288 288 287 289 288 288 287 287 287 286 286 286 287 288 288 287 287 285 284 283 282 281 281 282 282 282 282
304 304 304 304 304 305 298 301 302 295 294 293 293 290 288 288 287 287 286 285 287 288 288 287 286 284 284 284 285 285 286 285 286 286 286 285 283 282 281 280 280 280 280 281
303 301 303 302 301 297 296 296 296 296 293 292 291 290 289 288 287 285 285 285 285 286 286 285 283 282 282 282 283 283 284 285 284 284 285 285 284 283 281 280 280 279 279 279
305 304 299 299 297 295 295 295 294 293 292 290 290 289 287 286 284 284 284 284 284 283 283 282 281 281 280 280 281 282 282 283 284 283 283 283 283 283 282 280 279 279 278 278
303 302 300 299 297 295 294 293 292 291 290 289 287 286 286 285 285 285 284 283 283 282 281 280 280 279 278 279 280 280 281 282 282 283 282 282 282 282 282 281 280 279 280 279
303 300 298 301 296 296 294 292 291 290 290 289 288 288 287 286 285 284 283 282 281 280 279 278 278 277 276 278 279 280 281 281 281 282 282 281 282 282 282 282 282 280 280 279

GFSCGP_925_thetae_114.txt.gz
Theta_e
314 314 313 312 312 314 314 314 314 313 311 313 313 314 314 313 313 312 313 314 315 318 316 315 313 312 312 311 311 311 311 310 310 309 309 310 310 311 313 314 315 316 317 319
315 316 315 313 312 314 315 315 314 312 312 313 311 314 313 313 313 312 312 314 319 318 316 313 311 309 308 308 308 307 307 307 306 305 305 305 306 309 310 311 313 314 314 315
315 314 313 313 313 314 313 314 313 312 314 312 312 314 313 312 312 312 313 312 318 318 315 311 309 307 306 305 304 304 304 304 303 303 302 302 304 304 306 308 310 313 313 313
313 313 313 313 314 313 314 314 315 316 315 316 314 318 313 311 311 312 312 316 317 314 311 309 307 305 303 303 302 302 301 301 301 300 300 299 299 299 300 301 302 305 309 311
314 314 313 314 314 314 315 314 314 315 315 314 314 315 312 311 312 312 318 316 313 311 309 307 305 303 302 301 300 299 298 298 298 298 298 298 298 297 298 299 300 302 303 305
313 313 313 314 314 313 313 313 313 313 314 312 312 314 312 311 316 318 318 314 311 309 307 305 303 302 301 299 299 297 296 295 295 296 296 296 296 296 297 298 300 301 302 304
315 315 314 314 316 313 312 312 317 310 315 314 313 314 313 320 317 319 314 310 308 307 305 303 302 300 299 298 296 296 295 294 293 293 294 295 295 295 296 297 298 299 300 302
316 316 315 314 315 315 312 312 314 315 316 315 313 314 318 312 307 309 310 308 307 305 303 302 300 299 298 296 295 294 294 294 292 292 292 293 294 294 294 294 295 297 299 301
315 315 313 314 314 312 313 312 311 315 313 311 311 315 314 308 306 305 303 304 304 303 301 300 299 297 296 296 294 293 293 293 292 291 291 292 292 292 293 293 294 295 296 298
314 316 313 314 313 313 313 311 315 313 315 318 315 316 313 312 308 306 303 301 299 300 299 298 297 295 294 294 294 293 292 292 291 291 290 291 291 291 291 292 292 293 294 295
313 315 314 315 315 315 314 315 316 314 314 317 318 316 311 310 309 306 303 301 301 299 297 296 295 294 293 293 293 292 291 290 290 290 290 290 290 290 290 290 290 290 291 293
315 315 317 313 314 312 313 314 316 313 313 314 313 318 311 310 310 306 304 301 299 296 295 294 293 292 292 292 292 291 289 289 289 289 289 289 289 289 289 289 288 288 289 290
314 315 317 315 313 311 312 311 313 313 314 315 312 314 312 311 308 303 301 299 297 296 294 293 292 291 291 291 290 290 289 289 288 289 289 289 289 289 288 287 287 286 287 287
314 315 315 315 313 311 310 310 313 314 313 310 309 313 312 308 304 301 298 296 295 294 293 292 291 290 290 290 289 288 288 288 288 288 288 288 288 288 288 287 286 286 286 286
308 310 310 310 311 310 309 304 308 312 310 309 308 312 309 304 301 299 297 296 294 293 292 291 289 289 289 289 288 287 287 288 287 287 288 287 287 288 287 287 287 286 285 285
307 309 309 311 310 306 304 303 302 302 306 309 309 309 304 300 298 297 296 294 293 291 291 290 289 288 288 288 287 287 287 287 286 286 287 286 286 286 287 287 286 285 285 285
306 307 310 313 310 309 307 303 307 306 305 307 306 305 300 297 296 295 294 293 291 290 289 289 289 288 288 288 287 287 287 286 286 285 285 286 285 285 285 285 285 285 284 283
304 306 307 308 308 311 306 306 307 304 301 303 303 301 299 295 292 292 291 291 291 288 288 288 288 288 288 288 287 287 287 286 285 284 284 284 283 283 284 284 284 284 284 283
304 306 308 306 306 306 305 305 304 303 301 298 301 297 294 292 291 291 290 289 288 289 287 287 287 287 286 286 287 288 287 287 286 284 283 283 282 281 281 282 282 282 282 282
305 304 304 305 305 306 302 303 302 300 299 295 296 298 294 292 294 290 290 289 288 287 287 287 286 285 285 285 286 287 287 287 287 285 283 283 282 281 280 279 280 280 280 280
302 302 303 306 304 305 303 303 302 299 298 294 292 290 294 294 287 288 287 287 288 287 287 285 284 284 283 284 284 284 284 284 285 286 284 283 282 281 280 279 278 279 279 279
302 304 305 304 303 305 297 301 302 293 292 291 288 288 287 288 287 286 284 284 286 287 285 283 283 282 282 282 283 283 284 283 284 283 284 283 282 281 280 279 279 279 279 278
302 299 301 301 298 296 295 294 293 292 291 291 288 287 286 285 285 283 282 279 284 284 283 282 281 281 280 281 281 281 282 283 282 282 282 282 282 281 280 279 279 279 279 279
304 300 297 298 297 296 295 295 294 292 290 290 289 288 286 285 281 281 280 281 281 281 281 280 279 279 279 280 280 281 281 282 282 281 281 282 282 282 281 280 279 278 278 279
302 301 299 298 296 295 294 293 292 291 290 289 287 286 284 283 283 283 282 280 280 280 279 279 278 278 278 279 280 280 281 281 282 282 281 281 281 281 281 280 280 278 277 279
301 298 297 296 296 294 293 292 291 290 289 286 286 285 285 284 283 282 281 280 279 278 277 276 276 276 277 278 279 280 279 280 280 281 281 280 280 280 280 280 280 279 277 277

GFSCGP_925_thetae_120.txt.gz
Theta_e
310 312 313 314 310 310 311 310 311 309 309 311 312 311 309 308 308 307 307 306 308 310 307 303 302 301 302 302 302 301 302 303 304 306 307 308 309 309 310 310 310 310 311 311
312 313 312 311 310 312 312 313 313 311 311 311 309 310 310 309 309 311 311 311 312 309 305 303 300 299 297 297 297 297 298 298 300 300 301 303 305 305 306 306 306 307 308 309
314 314 313 313 312 313 312 313 313 313 311 310 310 311 309 310 313 313 309 308 307 305 303 302 300 299 298 296 296 295 295 296 296 298 300 303 302 302 301 303 304 304 305 305
314 313 313 314 315 313 315 312 312 312 313 312 311 314 312 312 311 314 309 307 306 304 303 301 299 297 295 296 296 295 294 296 293 294 295 297 297 298 298 298 299 300 301 303
312 312 312 312 312 311 312 311 312 312 312 312 313 312 309 310 311 313 309 306 303 302 301 299 299 297 295 294 294 294 294 293 293 293 293 294 295 296 296 296 296 297 298 299
310 310 309 311 311 310 311 312 311 310 309 314 312 312 308 311 310 309 305 303 301 300 299 298 296 296 295 294 293 293 292 292 293 292 292 292 293 294 295 295 295 295 296 297
312 311 311 312 313 311 312 314 316 313 313 315 310 310 311 309 308 307 304 303 300 299 298 297 296 294 294 293 292 292 291 291 291 291 291 292 292 292 293 293 293 294 294 294
313 312 311 312 312 313 310 313 318 318 313 311 310 311 313 308 305 304 302 301 300 297 296 295 294 293 293 293 292 291 290 290 291 291 291 291 291 291 291 291 291 291 291 291
312 314 312 313 311 312 313 316 312 316 313 314 310 311 309 308 306 305 304 302 301 298 296 294 294 293 292 292 291 289 289 290 290 290 290 290 290 290 289 289 289 289 289 290
311 314 312 312 311 310 311 309 314 314 317 316 311 311 309 309 307 304 303 302 300 298 296 294 293 292 291 291 289 289 289 289 289 289 290 289 289 289 288 288 287 287 288 288
310 312 313 313 314 313 312 312 312 312 313 313 314 310 302 308 306 303 302 301 298 296 294 292 291 291 291 289 289 288 288 288 288 289 289 289 288 288 288 288 287 287 287 287
310 312 314 314 312 311 313 313 313 315 312 311 305 307 308 308 306 305 304 300 297 295 292 291 290 290 290 288 288 288 288 288 288 288 287 287 287 287 287 286 285 285 285 286
313 313 316 311 311 311 314 313 312 312 312 315 310 309 309 308 308 305 302 298 295 292 291 289 289 289 289 288 288 288 287 287 287 287 286 286 286 286 286 285 284 284 284 285
312 312 312 312 310 310 313 313 314 315 316 314 311 311 308 310 309 300 296 293 291 291 291 289 289 289 289 288 288 287 287 286 286 286 285 285 285 284 284 284 284 283 283 283
310 313 312 311 311 312 311 312 313 316 315 315 312 310 310 309 304 297 294 293 292 291 290 289 288 288 288 287 287 286 285 284 284 284 283 283 283 283 282 282 282 281 281 281
307 309 309 310 310 312 312 311 310 312 314 313 311 310 308 302 297 295 294 293 291 291 290 288 288 288 288 288 287 286 285 284 283 283 282 281 281 281 281 281 281 281 280 280
307 308 309 311 309 309 313 310 308 306 305 309 312 308 301 299 298 295 294 293 291 290 289 288 288 287 287 287 287 286 285 284 283 283 282 280 280 279 279 280 280 280 279 279
307 307 309 311 310 313 306 302 306 304 305 304 304 303 300 299 295 293 292 290 289 288 287 287 287 286 286 286 286 286 285 283 283 282 281 280 279 279 279 279 279 279 279 279
304 305 309 309 309 307 304 304 301 302 302 300 302 299 295 293 292 292 291 288 285 284 286 286 285 284 284 285 285 285 285 284 282 281 281 280 279 279 279 279 279 279 278 278
304 305 308 306 304 305 299 302 302 300 301 297 298 296 293 293 296 288 288 286 285 285 284 283 283 284 284 284 284 283 283 283 282 281 280 280 279 278 278 278 278 279 278 278
307 306 307 305 305 302 300 301 299 300 300 297 297 295 292 291 287 286 285 284 285 284 283 283 283 282 283 283 282 282 282 282 282 281 280 279 279 278 277 278 278 278 278 277
306 306 305 305 305 302 300 301 301 296 292 292 291 292 289 289 288 286 284 285 284 283 282 282 281 281 282 282 282 282 281 281 281 281 281 280 279 278 277 277 277 277 278 277
304 298 298 300 298 294 295 295 292 292 290 287 288 288 288 287 287 286 285 282 281 282 281 281 280 280 280 281 281 281 281 281 281 280 280 280 280 278 277 276 276 276 277 276
300 298 294 297 295 295 294 292 291 290 288 286 287 287 287 286 282 280 280 279 278 280 280 280 280 279 278 279 280 280 281 281 280 280 279 279 279 277 277 276 276 276 276 276
299 298 298 297 296 295 294 292 290 287 286 285 285 285 284 282 281 281 279 278 278 279 279 279 278 278 277 278 279 280 280 280 279 279 278 278 277 277 276 275 276 275 275 275
299 299 300 300 297 296 294 291 289 287 286 285 284 283 283 282 281 280 278 278 277 277 278 277 277 277 277 278 278 279 279 279 278 277 277 277 276 276 275 275 274 275 275 274